ECMWFFLT2_sfc_temp_000.txt.gz
Temp
68 67 67 67 69 69 69 71 71 73 71 73 74 75 75 75 74 75 75 74 72 71 70 71 74 72 74 71 70 72 73 73 75 74 74 74 74 74 73 72 71 71 71 71 71 71 71 71 71 72 72 72 72 68 66 67 66 67 67 68 69 68
66 68 68 68 68 69 69 70 68 68 69 70 74 74 74 73 74 72 74 73 70 71 70 71 69 74 71 72 71 72 71 73 74 74 74 73 73 73 73 72 71 71 71 70 69 65 65 68 71 72 72 72 69 66 66 66 66 66 67 67 68 69
65 66 68 68 66 67 68 67 68 68 69 70 73 73 72 73 71 71 71 71 71 70 70 70 68 71 72 72 71 72 73 75 74 74 73 73 72 72 71 71 71 71 70 69 65 62 62 62 66 72 72 68 66 66 66 66 66 67 67 67 67 71
64 64 66 68 68 67 68 67 67 67 67 67 70 71 71 71 71 71 71 70 70 70 70 70 73 74 73 71 71 72 73 74 74 74 73 72 72 71 72 72 71 70 67 64 62 63 62 62 63 63 64 65 65 65 66 66 67 67 67 68 67 71
61 63 63 65 66 67 68 67 67 67 67 66 68 69 72 71 71 71 72 71 71 71 71 70 70 70 69 69 67 68 69 70 71 70 71 67 67 68 66 65 66 64 61 63 62 62 63 62 63 64 64 64 65 65 66 66 66 66 66 67 68 71
60 60 61 61 63 66 69 68 68 67 67 67 67 67 69 72 71 71 72 72 72 71 71 70 69 68 68 68 69 68 68 69 69 68 69 67 66 65 64 64 64 63 61 62 62 62 63 63 62 63 64 64 64 65 65 66 66 66 66 66 68 71
58 59 61 62 62 63 65 68 68 67 67 67 67 67 67 68 71 71 71 72 71 71 71 70 69 68 68 67 69 69 69 69 68 67 67 67 67 65 64 64 63 62 60 62 62 62 61 61 62 64 64 64 64 64 64 65 65 65 65 65 67 70
57 58 58 61 61 61 62 65 68 69 67 66 67 66 66 67 69 71 71 71 71 71 71 71 69 68 69 70 70 70 69 69 69 68 67 68 67 66 65 63 62 61 62 62 63 62 62 62 61 63 64 64 64 64 63 64 64 64 64 65 65 69
55 56 57 59 60 60 61 62 63 65 66 68 67 66 66 67 67 69 71 71 71 70 70 71 70 69 70 70 70 69 69 69 69 69 68 67 67 66 65 63 62 61 60 60 61 61 62 62 61 61 63 64 64 63 63 63 64 64 64 65 65 67
54 56 56 58 57 58 59 59 61 62 63 66 66 66 67 66 67 68 69 70 72 72 71 70 70 70 70 69 69 69 69 69 69 68 68 66 66 66 65 64 62 61 61 60 61 61 62 61 62 62 62 64 64 64 63 63 63 64 64 64 65 66
53 59 54 56 57 57 58 58 59 60 61 61 63 66 66 66 66 67 67 68 70 71 71 70 70 69 69 69 69 69 69 69 69 68 67 67 66 66 65 64 62 61 61 60 61 62 62 61 61 62 63 64 64 63 63 63 64 64 65 64 65 65
52 55 56 54 57 56 56 57 58 58 59 60 62 62 64 65 66 67 67 66 67 69 69 70 70 69 69 69 69 69 69 68 68 68 67 66 65 65 65 64 62 62 61 61 60 61 61 61 61 62 62 64 63 63 63 63 64 64 65 64 64 65
51 52 52 53 53 53 54 56 56 57 59 61 60 61 62 64 65 66 66 67 67 68 68 69 69 69 68 69 70 69 68 68 69 68 67 66 65 63 63 61 61 63 61 61 60 60 62 61 62 61 63 63 63 64 64 63 63 64 64 65 64 64
53 53 54 53 54 53 53 55 57 55 58 58 58 60 61 62 63 64 66 66 66 67 66 68 68 68 68 68 68 69 69 68 69 68 67 66 64 63 62 61 61 61 63 61 60 60 61 61 62 62 62 63 63 63 63 64 63 64 64 64 63 63
55 49 51 51 51 54 54 53 53 54 55 56 58 59 60 61 62 63 65 65 66 66 67 67 68 68 68 68 68 68 69 69 69 68 67 66 64 63 62 62 61 61 61 61 61 61 61 61 61 62 62 62 63 63 63 64 63 63 63 63 62 63
50 50 49 53 49 51 52 52 52 58 54 54 56 58 59 60 61 62 62 63 66 66 67 67 67 67 68 68 68 69 70 70 69 68 67 65 64 62 62 62 62 62 60 60 61 61 61 61 61 62 61 62 62 63 62 63 63 63 63 63 63 63
50 48 50 48 48 50 50 52 52 52 53 53 54 55 56 58 60 62 62 63 64 66 66 67 67 67 66 68 69 69 70 70 70 68 67 65 64 64 63 63 61 62 62 61 61 62 61 61 61 61 61 61 62 62 62 62 62 63 63 62 62 62
49 49 49 49 50 50 51 51 51 51 56 53 53 54 55 57 58 59 62 63 64 64 65 66 66 66 65 66 68 69 70 70 70 68 67 66 64 64 63 63 62 61 63 62 61 62 62 61 62 62 60 61 61 61 62 62 62 63 62 62 62 62
53 49 49 48 50 50 49 50 49 50 51 51 52 53 54 55 56 58 59 61 63 64 64 64 65 65 64 65 65 67 68 69 69 68 67 66 64 63 63 63 63 62 63 64 63 62 63 62 63 63 62 62 61 61 61 62 62 62 62 62 63 64
48 47 48 49 49 50 49 50 50 49 50 51 51 54 54 54 55 55 58 60 61 61 63 63 63 64 63 62 63 65 66 67 67 68 66 65 64 64 63 63 63 64 62 63 64 64 63 62 62 62 61 61 62 62 62 62 62 62 62 62 62 63
48 46 48 49 49 49 49 50 47 48 48 49 51 53 53 53 54 55 56 58 59 60 62 63 63 63 62 63 64 65 65 65 66 67 66 65 66 66 65 65 64 64 64 62 63 64 64 64 62 61 61 61 60 61 62 62 61 62 62 62 62 62
47 47 47 48 48 49 47 49 48 49 49 50 50 50 51 52 54 56 56 56 57 59 60 62 63 63 64 64 64 65 65 65 65 65 66 67 67 66 66 65 65 63 65 64 63 65 64 64 60 61 59 59 60 61 62 62 62 63 63 62 62 62
46 46 48 49 50 49 48 50 49 49 49 50 51 52 52 53 55 54 54 55 56 57 58 59 62 63 63 64 64 65 65 65 65 65 64 65 67 66 66 66 65 64 63 65 66 65 64 66 62 62 61 59 56 57 59 61 61 62 63 63 62 62
46 46 47 49 54 51 52 52 51 51 51 50 51 54 53 53 52 52 53 55 55 56 57 58 60 62 63 63 64 64 65 66 65 65 64 63 64 67 66 66 66 66 65 63 63 64 66 66 65 62 57 58 56 55 54 56 58 60 62 63 62 63
45 46 46 50 49 50 51 50 50 51 51 50 50 50 49 50 51 53 55 54 55 56 57 57 59 60 62 63 63 64 65 65 65 65 65 64 64 66 68 68 67 66 66 65 63 63 65 66 66 67 63 57 54 54 55 55 58 58 60 62 62 63
44 45 46 47 48 49 50 49 49 48 48 48 48 47 48 49 50 51 51 54 55 56 57 58 58 60 61 63 63 64 65 65 65 65 65 65 65 65 66 68 68 68 66 67 66 63 63 65 67 66 67 66 63 58 57 58 59 56 59 62 63 64
44 45 46 47 47 50 48 49 48 48 48 48 47 48 49 50 51 52 53 53 54 55 56 56 58 59 60 62 63 64 65 66 66 65 66 65 65 65 65 66 69 69 68 68 67 63 63 63 65 66 67 66 62 58 63 60 57 55 56 59 61 62
44 48 46 47 46 48 48 47 48 48 49 49 49 49 50 51 52 55 54 54 54 54 55 56 56 57 59 60 61 62 64 65 65 66 65 65 65 65 65 65 65 67 69 69 67 65 64 64 62 63 65 64 63 61 65 66 64 63 59 57 58 61
44 44 45 45 48 46 50 51 50 50 49 49 50 51 52 54 54 55 53 54 53 54 55 55 56 57 58 59 60 61 62 64 65 65 66 66 66 66 65 64 64 64 64 66 67 68 66 64 65 64 63 63 65 62 63 64 65 65 59 57 57 58
43 43 45 44 45 46 47 49 48 48 47 47 49 50 51 52 53 54 53 54 54 53 53 54 55 56 57 58 59 60 61 62 63 65 65 66 66 66 66 65 65 64 64 65 68 68 66 66 66 66 66 65 63 62 61 61 61 62 61 62 59 59
43 43 45 45 45 46 46 46 47 47 47 47 48 48 49 50 51 52 52 53 54 54 54 53 54 55 56 57 58 60 60 61 63 64 64 65 65 66 66 65 65 65 65 64 63 67 67 67 67 66 66 66 65 65 64 62 61 62 62 59 59 59
43 43 43 45 45 45 45 46 46 47 46 47 47 47 47 48 50 50 52 52 53 54 54 54 54 54 54 56 57 57 60 61 62 62 63 65 65 66 66 66 65 64 64 64 64 64 66 66 66 67 66 67 66 67 66 66 64 64 63 62 62 59
43 43 43 43 43 45 45 45 46 46 47 48 48 48 48 49 51 51 52 52 52 51 53 53 54 54 54 55 56 56 57 59 60 61 63 64 65 66 66 66 64 64 64 64 63 65 64 65 67 66 66 67 68 68 67 67 65 65 65 64 63 60
43 42 43 42 43 44 44 45 45 46 47 49 48 49 49 49 51 52 52 51 51 52 52 52 54 54 56 56 56 56 57 58 60 61 62 63 64 65 65 65 64 64 64 64 64 64 65 66 67 68 69 67 67 68 68 67 66 66 64 63 62 62
42 42 42 42 42 43 44 44 45 46 46 47 48 49 49 50 50 51 51 52 52 53 53 53 54 55 57 56 57 57 57 57 58 59 60 62 63 64 64 64 64 64 64 65 64 64 65 64 65 67 68 68 68 68 68 68 67 67 68 66 65 64
42 42 42 44 43 43 43 44 44 45 45 47 49 49 49 50 50 51 51 50 50 51 52 54 55 55 56 57 57 57 57 57 58 58 59 60 62 62 63 63 63 63 64 66 64 64 65 65 65 67 68 69 69 69 69 68 69 68 68 68 67 65
41 41 41 42 42 43 43 43 43 44 45 45 45 46 47 48 49 50 50 50 50 50 51 52 54 56 56 57 57 57 57 57 57 57 58 59 60 61 62 63 63 63 63 64 64 64 65 65 66 66 68 68 68 69 68 68 69 69 68 67 68 67

ECMWFFLT2_sfc_temp_003.txt.gz
Temp
75 75 74 75 74 74 74 73 73 72 71 70 74 74 75 75 75 75 76 75 73 79 78 77 76 80 74 76 72 72 73 75 75 74 74 74 74 73 73 72 72 71 71 71 71 71 71 71 72 72 72 72 72 77 79 79 78 78 79 79 78 80
74 75 74 75 75 74 74 73 73 72 72 73 74 75 76 78 77 79 75 77 79 79 79 77 75 75 77 76 76 72 73 74 75 74 74 73 73 73 73 72 72 71 71 71 71 77 75 72 71 72 72 72 76 79 78 78 78 79 79 79 79 77
74 74 74 75 74 74 74 74 73 72 72 71 72 76 78 79 79 79 80 81 79 79 81 79 76 75 75 74 76 73 73 74 74 74 73 73 72 72 72 71 71 71 69 69 77 77 78 78 76 72 72 75 78 78 78 78 78 79 79 79 79 73
72 72 73 74 74 74 73 73 72 71 71 71 70 72 77 78 79 79 80 79 80 79 80 78 75 73 73 75 75 72 73 74 74 73 73 74 72 72 72 71 71 70 72 77 78 79 79 78 78 76 76 77 78 78 77 78 79 79 79 78 81 71
72 71 72 72 73 73 73 73 72 70 70 70 70 70 72 77 78 78 77 79 82 79 79 78 77 76 75 75 76 77 77 78 78 77 74 78 78 77 76 77 75 75 77 76 77 77 78 77 77 77 77 77 76 77 78 78 79 80 79 78 78 70
71 71 71 72 71 71 73 70 70 70 70 70 71 70 71 73 77 77 76 80 80 78 77 78 76 74 76 75 75 76 77 77 77 78 77 78 78 77 77 77 76 76 76 77 76 76 77 76 76 76 77 76 76 75 77 79 79 78 78 78 77 70
70 70 70 73 73 72 70 71 70 70 71 70 71 71 71 71 72 74 77 77 78 78 76 75 74 73 74 75 75 76 77 78 78 78 77 77 77 77 77 76 76 75 76 76 77 76 76 76 76 77 76 76 76 76 76 78 78 78 78 78 76 69
69 69 70 73 72 72 71 70 69 68 69 70 71 70 71 72 72 72 74 76 77 79 78 73 74 75 74 76 76 77 78 78 78 78 78 78 77 77 76 76 74 74 76 76 76 76 76 77 76 76 76 76 75 75 75 77 77 77 78 78 78 73
68 69 69 70 71 71 71 70 68 67 66 68 69 71 71 72 72 73 73 74 76 77 77 76 74 74 74 75 76 76 77 78 78 79 78 77 78 76 75 75 74 74 74 75 75 74 75 76 76 76 76 76 76 76 75 75 75 76 77 78 78 76
67 68 68 69 69 69 69 69 68 67 65 66 65 68 70 71 71 71 72 72 72 74 77 78 76 75 73 74 75 75 74 77 77 77 77 76 77 76 76 76 75 74 75 74 75 74 74 74 77 76 77 78 77 77 76 76 76 76 77 77 77 77
68 66 68 70 68 68 68 67 68 68 68 67 65 67 67 70 72 72 72 71 71 71 75 78 77 77 75 75 75 74 74 77 77 76 75 75 76 76 75 74 74 74 74 74 74 74 74 74 75 77 76 77 77 76 76 76 77 77 77 77 77 77
66 66 66 68 67 68 67 67 67 67 68 67 67 67 67 66 67 69 72 71 71 71 71 73 76 77 77 76 75 75 76 75 76 76 74 74 74 75 75 75 74 74 73 73 72 73 74 74 74 77 77 77 77 76 77 76 77 77 78 78 77 77
65 65 66 65 66 66 67 68 67 67 67 67 66 66 67 69 67 67 68 70 71 72 71 70 71 74 75 73 74 76 76 75 77 77 74 73 74 72 72 71 70 72 73 73 72 71 73 73 74 75 76 77 76 76 77 77 77 77 77 77 78 78
65 66 65 66 65 66 65 66 66 66 66 66 66 66 66 67 68 67 68 69 70 71 71 70 70 70 74 73 72 73 75 76 77 77 75 73 72 70 71 70 70 72 72 73 72 71 71 72 73 75 75 77 76 76 76 77 76 77 77 77 78 77
64 64 64 64 64 65 65 65 66 65 65 66 66 66 65 66 68 68 67 67 66 68 71 72 72 69 68 71 72 71 70 74 76 76 75 74 74 72 71 72 73 73 73 72 73 73 73 73 72 73 74 74 76 76 76 76 76 76 76 76 75 76
64 64 63 63 63 63 63 64 64 65 65 65 66 66 67 65 67 67 68 67 66 66 69 72 72 71 69 69 69 70 71 72 74 76 75 74 73 72 73 73 75 74 71 72 73 72 73 73 73 74 74 73 75 75 75 76 75 76 77 76 76 74
63 62 62 62 62 63 63 64 64 64 64 64 65 66 66 65 66 67 66 68 67 68 68 70 71 72 70 70 68 68 71 70 71 73 74 72 70 72 73 74 73 73 73 73 74 74 73 73 73 73 73 73 74 73 75 75 76 76 77 74 75 75
61 61 62 62 62 63 63 63 64 64 62 63 63 64 65 66 66 66 66 66 66 67 67 67 68 70 68 70 69 67 67 69 70 70 71 70 70 72 73 73 72 73 74 74 74 74 73 73 74 75 73 73 72 73 74 74 75 74 75 75 74 75
63 62 62 61 62 63 63 63 64 63 63 63 64 64 64 66 67 65 65 66 67 66 67 67 66 66 68 68 67 67 66 67 69 71 70 69 68 68 69 72 73 72 73 75 75 74 74 73 74 74 75 74 73 73 74 74 73 74 74 75 76 75
62 61 62 62 63 64 64 64 63 63 63 63 63 63 63 65 65 66 66 65 66 65 66 66 67 67 65 65 64 65 65 65 66 67 67 68 66 66 66 68 71 74 72 74 75 76 75 73 73 72 71 73 74 73 73 72 71 73 73 73 74 75
62 61 63 63 63 62 61 61 62 61 60 62 62 62 62 63 64 65 65 66 66 66 67 67 67 68 67 65 64 64 65 65 66 67 65 66 68 68 68 68 70 71 72 71 73 75 77 75 72 69 70 70 70 72 72 70 71 72 72 74 75 74
61 61 61 61 61 61 60 60 59 60 60 62 62 62 62 63 63 63 64 65 65 66 66 66 67 67 66 67 66 64 65 65 66 66 66 67 68 67 67 68 70 71 74 73 72 75 76 74 71 69 67 67 68 70 71 71 72 73 73 74 73 72
61 61 60 61 62 61 60 60 59 59 59 60 62 62 62 63 63 64 63 64 65 65 65 66 67 67 66 67 67 66 66 65 65 65 65 65 66 66 66 66 68 71 72 74 75 76 74 74 73 73 72 70 66 66 67 68 70 72 72 73 73 73
61 60 61 61 60 59 59 59 59 59 59 59 59 61 61 62 62 62 63 64 65 65 66 66 67 68 67 67 67 67 67 66 66 66 64 64 64 65 66 66 69 71 73 71 73 74 75 74 76 73 66 67 68 67 65 65 67 70 73 72 71 73
60 60 60 60 59 59 60 60 60 60 60 60 60 61 61 62 62 62 63 64 63 64 65 66 67 67 68 67 67 68 68 67 66 66 65 64 64 64 65 67 70 70 72 71 72 73 74 76 76 76 73 68 66 63 65 70 69 69 72 72 73 74
59 59 60 59 59 59 59 58 58 58 57 57 57 58 58 57 59 60 60 61 63 64 65 65 66 67 67 67 66 68 68 68 67 66 66 65 64 64 64 64 66 69 71 72 72 71 71 73 75 75 76 75 74 70 68 71 68 65 70 72 73 75
59 60 58 58 58 58 58 59 57 56 56 55 55 58 58 59 59 61 61 60 62 62 64 64 64 65 66 67 67 67 67 67 68 67 67 65 64 64 64 64 65 64 67 69 68 68 69 71 73 75 76 74 75 74 76 70 66 69 63 68 71 72
58 59 58 58 57 57 58 58 56 56 57 57 56 56 57 58 60 60 60 60 61 61 62 64 64 65 66 66 66 66 67 66 65 67 68 67 65 65 64 65 65 65 65 65 67 65 66 71 68 69 73 72 72 75 76 76 76 72 70 66 66 72
57 58 58 57 57 57 57 57 57 57 56 58 58 58 59 60 60 60 59 60 60 61 61 61 63 63 64 65 66 66 66 66 66 66 66 68 69 69 66 64 65 64 64 64 65 66 66 67 69 70 69 69 72 73 74 75 77 77 72 69 69 67
57 57 57 56 56 56 56 56 56 56 55 55 57 57 58 58 58 59 58 58 59 60 61 61 61 62 63 64 65 66 65 65 65 66 66 67 68 69 69 67 67 66 66 64 65 64 64 66 70 71 71 70 69 70 71 72 73 73 73 73 69 69
58 57 56 56 55 55 56 56 55 55 54 54 54 54 54 55 57 57 57 58 58 59 60 60 60 61 62 63 63 64 65 65 66 66 67 67 67 66 69 69 70 69 67 65 64 64 63 64 67 69 71 71 70 70 69 69 70 71 71 69 70 70
56 55 56 55 54 55 56 55 55 55 54 54 53 53 53 53 54 54 55 56 58 58 59 60 60 60 60 62 63 63 64 64 65 65 65 67 68 69 67 69 70 69 68 66 66 65 65 63 65 67 70 72 72 72 72 72 73 73 72 71 71 71
57 55 55 54 54 55 54 55 55 55 54 54 54 53 53 53 54 53 55 55 55 56 58 58 58 58 59 60 62 61 62 63 64 65 65 66 67 68 69 68 67 67 68 67 65 64 63 64 65 65 68 71 73 74 73 74 75 74 74 74 73 71
57 54 55 54 54 54 54 54 55 55 54 54 53 53 53 53 54 54 54 54 54 55 55 56 57 57 59 60 61 61 62 62 64 65 65 65 66 67 67 69 69 66 66 68 68 66 64 65 65 65 66 66 70 73 73 75 74 74 73 73 72 71
55 54 54 54 54 54 54 54 54 55 54 54 53 54 54 55 54 53 53 53 53 54 54 55 56 57 59 59 59 60 61 61 62 63 64 64 65 66 66 67 67 67 67 67 69 68 66 65 66 66 66 66 68 70 74 76 76 74 76 74 74 73
55 54 53 53 54 53 54 54 54 53 54 54 53 53 53 54 54 54 53 53 53 53 53 54 55 55 56 57 58 58 59 60 62 63 64 64 65 65 66 66 67 66 66 69 66 67 67 67 67 68 67 66 66 67 72 76 77 76 76 76 75 76
53 52 52 53 53 53 53 52 53 54 54 53 53 52 52 52 52 53 54 54 54 54 54 54 54 55 55 56 57 58 59 60 61 62 63 64 64 65 65 65 65 66 66 67 66 65 66 67 67 67 67 67 64 64 67 73 76 77 76 75 76 76

ECMWFFLT2_sfc_temp_006.txt.gz
Temp
82 80 80 79 79 80 77 73 73 72 72 73 74 74 75 75 75 75 76 75 74 80 80 80 79 82 75 79 74 72 74 75 75 75 74 75 75 75 74 74 73 72 72 72 72 71 72 72 72 72 72 72 72 79 83 84 84 85 86 86 84 84
83 81 80 80 79 79 79 75 80 78 79 76 74 75 78 79 78 81 76 78 81 82 82 82 82 80 81 79 77 73 74 75 75 74 74 74 74 73 73 73 72 72 72 72 70 80 77 73 71 72 72 71 78 84 83 84 84 86 85 85 85 77
84 82 81 80 80 79 80 80 79 79 79 76 77 76 79 80 82 83 83 83 81 82 84 85 82 81 82 76 77 73 74 75 74 74 74 73 73 73 72 72 71 72 72 70 79 83 83 83 79 72 72 75 81 84 84 83 84 85 85 85 85 73
82 81 82 81 80 80 78 78 78 79 79 78 78 77 79 81 82 83 86 84 84 85 85 84 80 78 79 77 77 73 73 74 74 74 73 75 73 73 72 71 72 71 73 80 84 84 86 86 84 80 80 81 83 85 83 83 85 86 86 85 86 71
83 82 82 82 80 79 78 77 78 78 77 78 78 77 76 81 82 82 85 84 86 85 87 83 81 81 82 81 77 79 79 77 79 79 75 80 80 80 78 82 79 79 82 82 84 83 83 84 83 82 82 82 83 83 83 84 85 86 85 84 80 72
81 82 81 82 81 79 78 76 76 77 78 79 78 77 78 78 80 80 82 86 86 83 84 83 82 82 83 82 78 77 76 78 79 78 80 83 83 81 82 83 82 82 83 83 82 82 82 83 83 83 84 83 83 82 83 85 85 84 85 84 78 72
80 80 80 84 83 82 77 77 76 78 80 79 78 77 77 77 77 79 81 83 84 83 82 83 82 81 82 82 81 79 80 82 81 81 82 84 83 82 83 84 83 83 84 83 83 82 82 82 83 85 84 85 84 84 83 85 85 84 84 84 78 71
78 79 79 83 81 81 80 78 76 75 76 74 76 77 77 78 79 78 79 82 82 82 82 82 81 80 82 83 81 82 83 84 83 84 84 84 83 83 84 84 82 84 84 84 83 83 83 84 83 83 84 84 84 83 83 85 84 83 84 83 81 73
77 78 79 80 80 81 81 79 78 77 75 72 72 74 77 78 79 81 79 81 82 80 82 81 80 81 82 82 82 82 84 84 84 85 83 83 83 82 82 83 82 83 83 83 82 81 83 84 83 83 84 84 84 85 83 84 84 84 84 84 83 77
76 78 78 79 79 78 78 78 77 76 75 75 72 71 72 77 78 79 80 80 82 81 76 75 79 81 75 78 82 82 82 83 83 83 83 80 83 82 82 82 81 83 86 83 83 81 82 82 85 84 85 84 84 84 83 83 84 84 84 83 83 78
77 74 78 79 77 76 77 77 77 78 78 76 75 74 72 71 74 77 79 78 79 81 80 75 74 81 76 78 82 81 81 83 83 83 82 82 83 82 82 83 84 84 84 84 83 83 82 82 83 86 85 85 85 84 84 84 85 85 85 83 84 81
74 73 74 77 76 76 76 77 76 78 77 77 75 76 76 75 72 72 75 77 78 79 79 80 73 76 82 81 82 82 82 81 82 84 84 83 82 82 82 84 84 83 82 83 82 81 81 82 82 85 86 85 86 84 84 84 84 85 85 85 85 83
74 73 73 73 74 75 75 77 76 76 77 75 77 77 77 76 74 72 72 75 76 78 78 79 76 76 81 82 78 74 79 82 83 84 83 83 83 81 81 81 80 81 81 81 80 79 81 81 81 82 84 86 85 86 86 86 84 84 84 84 84 85
73 73 72 73 73 75 74 75 76 76 76 75 77 77 76 76 76 76 75 75 75 78 78 79 81 78 77 80 77 74 77 82 83 83 82 81 81 81 80 80 80 80 79 80 79 79 79 79 81 82 82 84 84 83 85 87 85 84 83 82 84 84
72 72 72 72 72 73 73 74 76 75 75 73 76 76 76 76 77 78 77 77 74 75 78 79 79 78 77 76 77 71 73 81 82 82 82 81 80 80 79 80 81 81 80 79 81 80 79 79 80 81 81 81 84 85 83 83 83 83 84 82 82 84
71 71 71 70 71 71 72 72 74 72 74 72 75 76 76 75 77 78 77 77 76 75 75 76 77 78 76 76 75 75 78 80 81 82 81 80 80 79 80 79 80 81 79 80 81 80 80 79 80 80 81 80 82 82 82 83 83 84 85 84 83 82
70 70 70 70 71 70 71 73 73 73 72 73 74 74 76 75 76 76 77 78 76 75 75 75 76 77 77 77 77 76 76 77 79 80 80 80 80 79 80 82 79 79 81 80 82 82 80 79 80 79 81 80 81 81 81 82 83 82 85 82 83 84
70 70 70 71 71 72 72 72 74 74 72 73 72 74 75 76 75 76 75 76 75 75 75 76 73 74 74 76 78 76 76 74 73 75 75 78 79 81 79 79 78 80 81 81 80 82 81 80 81 81 79 80 79 81 80 81 82 80 82 82 81 83
70 70 70 70 71 72 72 73 73 72 73 73 74 73 73 75 75 75 75 73 74 74 75 74 74 74 72 74 76 76 74 74 73 71 71 72 73 77 78 78 77 79 80 82 79 82 83 80 81 81 82 80 81 80 79 80 81 81 81 82 83 83
70 70 70 71 73 75 76 75 74 75 74 72 73 73 72 74 73 74 73 72 73 72 75 74 74 74 73 72 74 74 74 74 73 72 69 68 68 72 75 75 76 79 78 80 81 82 85 80 80 79 78 79 80 80 81 80 80 80 80 81 81 82
70 70 72 73 73 73 73 73 73 72 71 72 72 72 71 71 72 73 72 73 73 74 73 73 74 74 73 72 72 72 70 68 69 71 71 69 69 71 74 75 75 73 76 76 78 81 85 82 78 76 76 77 77 80 80 79 79 80 81 82 82 81
71 70 70 70 71 71 71 72 71 71 71 73 73 72 71 72 70 70 71 71 72 73 72 72 73 73 72 72 72 73 72 70 68 68 70 71 69 68 68 73 76 73 74 75 75 81 84 80 77 75 72 72 74 76 77 78 79 80 82 82 80 80
71 71 70 69 71 70 69 68 69 70 70 71 72 70 71 70 70 72 71 71 72 71 72 73 73 73 72 72 72 72 73 73 73 71 69 68 70 68 67 68 70 71 74 73 72 76 79 80 78 78 76 73 70 69 71 74 77 79 81 81 81 81
70 70 70 69 69 68 68 67 68 68 68 69 69 69 68 71 71 71 72 73 72 72 72 72 74 75 74 73 72 72 73 74 74 73 72 68 66 67 68 67 67 68 70 66 68 70 79 81 79 79 71 71 72 71 69 69 71 75 79 79 79 80
71 70 70 69 68 69 69 68 69 68 69 69 70 70 70 70 70 70 70 71 70 71 72 72 73 73 74 73 73 72 72 73 73 74 74 72 69 68 69 70 69 67 67 65 65 67 76 81 80 80 78 74 72 69 70 75 73 73 78 78 80 80
71 71 70 68 67 69 70 69 69 69 67 67 66 66 66 64 66 67 68 68 70 71 71 71 71 72 73 73 72 72 72 73 73 74 74 73 73 70 70 69 71 69 67 66 66 66 68 77 77 78 80 81 79 75 74 78 77 70 76 77 79 82
71 71 69 68 67 69 69 69 67 66 66 65 65 66 66 66 66 68 69 68 69 69 70 70 70 71 72 73 72 72 72 72 73 73 74 73 73 72 71 69 69 67 68 68 66 63 65 71 73 77 79 79 80 81 81 76 74 76 72 75 78 78
71 71 69 68 67 67 68 68 67 66 67 66 65 64 64 66 66 67 67 67 69 69 69 70 70 72 72 72 72 72 72 72 72 73 73 74 74 75 73 70 68 68 67 66 66 63 64 67 71 71 75 76 77 79 82 81 82 78 77 73 74 79
70 69 68 66 67 66 67 67 67 67 66 67 66 66 67 67 67 67 65 67 67 68 69 69 70 69 70 71 71 71 71 72 71 72 74 74 74 74 73 71 69 68 65 64 65 65 64 65 68 67 72 72 76 77 79 80 82 82 78 75 76 75
68 69 68 66 66 65 65 66 66 65 63 64 65 66 66 65 65 65 65 65 66 67 68 69 69 69 69 71 71 71 71 71 71 71 71 73 73 73 72 72 71 70 68 66 65 64 64 64 66 68 72 71 71 73 76 77 77 77 78 78 75 78
68 69 67 66 65 64 65 65 66 64 62 61 61 62 63 63 64 63 63 64 65 67 68 67 68 68 68 68 68 70 70 70 71 71 72 72 72 73 73 71 71 71 69 67 66 65 63 64 66 67 67 69 71 73 72 72 73 76 75 74 74 75
67 67 67 66 65 64 65 64 64 63 62 62 61 62 61 61 62 61 62 63 65 66 66 67 67 68 68 68 67 67 68 69 70 71 71 71 72 73 73 73 72 71 69 68 68 66 65 63 64 64 66 68 69 71 73 74 77 77 75 74 75 75
66 66 66 65 64 64 64 64 64 63 62 63 62 61 61 61 62 62 63 63 63 64 65 65 66 66 67 66 66 65 66 67 68 70 71 72 72 72 72 73 72 70 69 68 68 67 65 64 64 64 64 66 67 70 72 75 77 78 78 77 75 73
67 66 66 65 64 63 63 64 63 63 63 63 62 62 62 63 63 63 64 63 62 63 63 62 63 63 65 65 66 65 66 66 67 68 69 70 71 71 71 72 72 70 70 70 69 67 67 67 67 68 67 65 66 67 69 72 73 75 74 75 72 73
67 66 65 64 64 64 63 63 63 63 63 63 62 63 63 64 63 62 63 62 62 63 63 64 64 64 64 63 63 63 64 64 65 66 67 68 70 70 70 71 72 71 72 72 70 68 67 66 68 69 67 66 66 66 65 68 70 72 75 77 75 75
67 65 65 65 64 64 64 64 62 62 62 61 63 63 63 63 63 62 61 61 61 62 63 63 64 63 63 63 62 62 62 63 64 65 65 67 68 69 70 69 71 71 70 72 71 69 67 68 66 68 69 68 65 64 66 67 69 68 71 75 77 76
67 66 65 65 64 64 63 62 62 62 62 61 61 60 61 61 60 61 61 61 62 62 62 62 62 63 62 63 62 62 61 61 62 63 64 66 68 69 69 69 70 70 70 72 71 72 71 69 69 69 70 70 69 66 64 65 67 68 67 66 71 75

ECMWFFLT2_sfc_temp_009.txt.gz
Temp
82 84 82 82 78 77 77 75 74 73 73 75 75 75 75 75 75 76 77 75 74 79 79 78 77 79 75 78 74 74 74 75 75 75 75 75 75 74 75 74 73 73 73 73 73 72 72 72 72 72 72 72 72 77 80 83 85 87 89 87 85 80
83 82 83 81 79 75 76 75 77 79 78 77 76 75 77 80 79 81 76 78 79 81 81 81 79 79 78 79 77 73 74 75 75 75 75 75 74 74 74 74 73 73 72 73 71 78 76 73 71 72 72 72 76 81 83 83 84 87 87 87 81 76
88 84 82 82 81 78 79 78 80 78 79 76 78 77 80 81 83 83 83 83 81 81 82 82 80 80 79 77 78 73 74 75 74 75 74 74 74 74 74 73 72 73 72 71 76 81 81 80 77 72 72 75 80 82 84 84 84 85 87 86 80 74
86 86 85 82 81 78 79 78 78 78 76 75 77 78 79 82 83 84 84 83 82 82 82 79 77 80 79 78 77 73 73 74 74 74 74 75 73 74 73 72 73 72 73 78 81 83 85 82 81 77 78 80 82 84 85 84 85 86 87 87 82 73
86 85 86 83 82 76 76 77 78 76 76 74 74 77 78 81 82 84 84 83 86 82 81 77 75 80 78 80 78 78 77 77 77 78 74 79 78 78 77 80 78 77 79 79 83 85 85 84 80 80 80 81 83 84 85 84 85 88 88 82 77 73
85 85 84 86 82 77 76 73 73 73 73 73 72 72 75 76 81 81 81 84 83 80 82 77 78 78 80 79 78 76 77 79 80 79 79 81 81 79 80 80 79 79 80 82 85 84 83 84 82 82 83 82 83 84 85 85 86 85 87 80 77 72
83 83 83 88 86 82 74 74 74 73 73 71 71 71 73 75 77 79 79 77 75 70 74 79 77 79 75 74 76 75 76 80 80 81 80 82 82 80 82 82 81 80 83 85 85 85 84 84 84 83 82 84 84 85 84 85 86 85 85 83 76 71
81 82 82 86 85 85 81 74 72 74 74 71 72 68 70 74 80 78 76 74 75 74 72 74 74 73 76 73 75 73 77 78 80 82 83 83 84 82 83 83 81 84 83 85 86 85 84 85 84 83 84 84 85 85 84 86 86 84 84 83 78 73
81 81 82 83 83 84 84 82 76 70 70 69 70 71 72 74 80 80 73 74 74 72 72 72 70 74 83 81 79 78 76 77 78 82 83 84 84 81 82 82 82 82 82 84 86 85 85 85 83 83 83 84 85 86 85 85 85 85 84 83 79 75
79 81 81 82 81 81 81 81 81 79 77 73 72 72 75 77 74 74 74 74 75 74 72 71 71 72 78 78 75 77 77 75 72 81 81 82 83 80 81 82 82 82 85 84 86 85 85 84 85 83 84 84 84 86 85 85 85 86 86 84 81 75
80 77 81 81 80 80 80 79 81 82 82 79 76 74 74 74 76 77 74 72 73 72 72 70 73 73 74 77 76 78 77 75 70 76 78 82 83 83 82 82 82 83 82 84 85 86 84 83 84 85 85 85 86 85 86 86 86 87 87 85 84 77
78 77 77 80 79 79 79 80 80 81 81 80 79 81 80 78 77 77 76 75 73 70 74 70 71 75 77 76 76 72 73 78 78 81 84 85 84 84 84 84 83 82 84 85 85 86 85 83 83 85 86 86 87 86 86 86 86 86 86 86 86 82
77 76 77 76 78 78 78 81 80 80 80 79 81 80 81 81 79 78 78 77 75 73 74 76 70 75 77 76 74 72 70 72 82 79 79 84 84 83 83 82 81 84 84 84 84 84 86 83 82 83 85 87 86 87 88 88 86 86 86 86 86 86
77 76 76 77 77 79 78 79 80 80 79 79 80 80 80 80 80 80 79 78 77 78 79 79 74 73 76 74 72 72 70 71 71 80 81 82 83 79 80 82 82 82 81 81 81 82 82 81 83 84 84 86 86 85 86 88 86 86 86 85 86 85
75 76 76 76 76 77 77 78 79 79 78 78 79 80 79 80 81 81 81 81 78 77 78 76 75 73 75 74 71 69 70 74 76 75 76 80 82 82 82 81 82 81 81 80 83 83 82 81 82 83 83 83 86 87 85 85 86 86 86 85 84 85
75 74 74 75 75 75 76 76 78 77 78 77 79 79 79 79 81 82 80 79 79 78 77 78 77 73 71 74 72 69 71 76 79 76 76 79 80 81 82 82 82 81 79 81 82 83 83 82 82 82 83 83 83 84 84 84 84 86 87 86 85 84
74 74 74 74 75 75 76 77 77 76 77 77 78 79 80 79 80 80 79 81 79 78 78 77 77 77 71 71 73 74 72 74 77 77 77 76 78 79 80 83 80 81 80 80 83 84 84 82 82 82 82 83 82 82 83 83 83 84 88 84 85 85
74 75 74 74 75 76 77 77 77 77 76 77 76 78 79 80 79 80 79 79 77 77 77 78 78 78 74 72 72 70 73 77 75 74 73 73 75 79 78 77 78 80 82 81 82 82 82 83 84 85 81 82 81 82 82 83 83 82 84 85 84 85
74 74 74 74 74 75 75 77 78 78 78 77 78 77 78 79 79 78 79 77 76 75 77 77 77 77 75 75 73 71 68 70 76 74 71 71 73 76 76 75 73 74 79 80 80 81 82 81 85 85 84 83 83 81 81 82 83 83 83 84 86 86
74 75 75 75 78 80 79 78 77 77 77 77 77 77 76 78 77 78 77 76 76 75 77 76 76 76 75 75 75 73 70 70 74 75 75 73 73 74 73 73 73 73 73 77 80 83 81 80 82 83 79 82 82 82 83 82 81 83 83 82 82 84
74 74 76 77 77 77 76 76 76 75 75 76 77 76 75 75 75 76 75 76 76 76 75 75 75 76 75 75 75 75 75 74 75 75 74 73 74 75 74 75 71 73 74 73 74 77 82 80 78 78 79 79 79 82 81 81 81 82 83 83 83 83
73 74 75 75 75 75 75 75 75 75 76 76 76 76 75 75 73 74 74 74 74 75 75 74 75 75 74 75 75 75 75 75 74 73 74 75 75 73 73 74 74 74 76 74 73 74 77 77 73 75 75 74 75 78 80 80 81 82 83 84 82 81
74 74 74 74 75 74 73 73 74 73 74 76 76 74 75 74 74 76 73 75 75 74 74 75 75 75 74 74 74 74 75 76 75 74 72 71 73 72 71 71 72 71 72 76 74 76 75 77 73 77 78 75 72 71 74 77 79 81 82 82 82 83
74 74 73 74 74 73 73 72 72 73 73 73 73 73 74 74 74 73 74 74 75 74 74 74 75 76 76 76 75 74 75 76 76 76 74 73 73 72 71 70 70 70 69 66 70 74 78 77 71 68 69 71 72 73 70 70 72 77 82 81 82 83
74 74 74 73 73 73 71 71 71 71 72 71 74 74 74 73 73 74 73 73 73 73 73 74 74 75 76 74 75 75 74 74 74 75 76 74 73 73 74 74 72 69 67 65 64 67 68 69 73 72 71 70 70 69 70 76 74 74 79 80 82 83
74 74 73 72 73 73 73 73 72 72 71 71 70 70 69 68 70 70 71 72 73 74 73 73 74 74 75 74 73 73 73 74 73 74 75 75 75 74 73 73 75 72 68 68 66 65 64 66 68 72 74 72 72 69 71 77 77 70 77 78 80 83
74 74 74 73 73 73 72 72 71 71 71 70 70 69 70 70 70 71 72 71 72 72 73 72 73 74 74 74 73 73 73 73 74 74 74 74 74 74 75 75 75 74 72 70 67 65 65 66 66 68 73 71 73 75 76 73 71 76 71 74 78 78
75 75 73 73 72 73 73 72 71 70 71 71 70 69 69 70 70 71 70 70 71 72 73 74 73 73 73 74 74 73 73 73 73 74 75 75 74 75 75 76 75 74 72 72 70 67 67 69 67 68 71 70 72 74 77 78 80 76 74 71 71 79
74 74 73 72 72 72 73 72 71 71 70 71 70 70 71 72 71 71 69 70 70 71 71 72 74 73 72 73 73 72 73 73 73 73 75 75 75 76 75 74 73 73 71 70 70 70 69 68 69 69 69 66 68 69 69 75 78 79 76 71 73 73
73 74 73 72 72 71 71 71 71 70 69 69 70 71 72 70 69 70 69 69 70 70 71 72 71 72 72 73 72 72 72 72 72 73 73 73 73 73 73 74 74 73 73 71 71 70 69 69 70 70 70 68 65 66 69 71 73 75 76 75 70 73
73 74 73 71 71 70 70 71 70 69 68 68 68 68 68 67 69 68 68 68 69 70 71 71 71 71 71 71 71 72 70 70 71 72 73 73 72 73 73 73 73 74 73 72 71 69 68 69 70 70 70 68 67 67 67 68 68 72 74 72 73 73
72 73 72 71 71 70 70 70 70 69 68 68 67 67 67 67 67 66 67 67 69 70 70 71 70 71 71 71 71 70 71 70 70 70 71 73 73 73 73 74 74 73 73 73 72 71 70 68 68 69 69 69 67 68 68 67 71 72 72 73 73 72
71 72 71 71 69 69 69 69 69 68 68 68 67 68 67 67 68 67 68 68 68 68 69 69 70 70 70 70 70 69 69 69 69 70 70 71 72 74 73 73 73 73 73 73 72 71 68 68 69 69 69 69 68 68 68 70 71 71 70 71 73 66
72 72 71 70 69 69 69 69 69 69 68 68 67 67 68 68 68 69 69 68 67 68 68 67 68 67 69 69 69 69 69 69 69 69 70 69 69 71 72 73 73 72 72 72 73 71 70 70 70 70 71 70 69 67 67 67 67 69 68 69 68 66
71 71 70 69 69 68 68 69 69 69 69 69 68 68 68 69 68 68 68 68 68 68 67 68 68 69 69 68 67 67 67 67 67 67 68 68 69 69 69 71 71 70 72 73 73 72 71 70 68 69 70 70 69 69 68 68 67 66 67 68 69 66
71 71 70 69 69 68 68 68 68 67 67 68 69 69 69 69 68 68 67 67 67 67 67 68 68 68 68 67 66 66 66 66 67 67 67 68 68 69 68 68 70 71 70 73 71 71 72 70 69 69 69 69 69 70 70 69 68 67 66 66 67 69
72 72 70 69 69 69 69 67 67 67 67 67 67 67 67 67 67 67 66 66 66 67 67 67 67 67 66 67 66 66 65 66 66 66 66 66 66 67 68 68 68 70 70 71 71 72 72 71 70 70 69 69 69 69 70 70 69 67 66 66 66 66

ECMWFFLT2_sfc_temp_012.txt.gz
Temp
78 78 78 78 74 75 75 74 74 73 74 75 75 75 75 75 75 75 76 75 74 76 76 76 75 76 75 75 74 74 74 75 75 75 74 74 75 74 74 74 73 73 73 73 73 72 72 72 72 72 72 72 73 71 72 74 76 77 78 76 74 74
78 78 78 76 76 74 74 75 76 75 75 75 75 75 75 76 77 76 75 75 76 76 76 77 75 78 75 75 75 74 74 75 75 74 74 74 74 74 74 74 73 73 73 73 72 72 72 72 71 72 72 72 71 71 73 75 75 77 77 75 73 73
80 79 78 77 76 75 75 75 76 76 76 75 77 77 76 78 78 79 78 78 77 77 78 78 76 77 76 76 75 74 74 75 74 74 74 74 74 74 73 73 73 73 72 72 72 72 73 72 71 72 72 71 70 72 74 76 77 76 76 75 73 74
84 81 76 75 75 74 75 75 75 75 74 74 74 75 77 78 79 79 80 78 77 78 77 76 78 79 79 75 74 73 74 74 74 74 74 74 74 73 73 73 73 72 71 73 73 74 75 75 73 70 70 70 72 74 76 75 77 77 75 76 74 73
83 82 80 75 74 74 73 73 74 75 74 73 73 75 76 77 78 79 80 78 80 77 77 73 72 75 75 75 73 73 73 74 74 74 73 73 73 75 73 74 73 71 72 73 74 74 75 75 73 72 71 72 74 75 77 77 76 76 74 74 72 73
81 83 82 77 76 75 74 73 74 74 73 74 73 74 74 76 76 77 75 79 74 72 71 71 69 68 69 67 70 73 74 74 74 74 74 74 74 73 73 75 74 74 73 74 75 75 76 75 74 73 73 73 74 76 77 76 77 76 73 71 72 73
80 80 79 81 78 76 74 74 74 74 74 74 74 73 73 74 75 75 74 72 72 69 71 70 69 68 69 68 69 69 71 74 75 75 74 75 75 74 74 74 74 73 74 75 76 78 78 77 76 77 75 76 77 78 77 78 77 76 72 71 72 73
78 79 77 83 78 77 76 74 74 74 74 73 73 73 71 72 73 72 72 71 71 71 69 69 69 68 68 68 69 69 69 72 75 76 75 77 76 75 75 75 74 76 76 77 77 77 77 79 77 76 77 77 77 77 77 78 77 77 73 72 71 72
79 78 78 78 79 77 76 75 73 71 71 73 72 71 71 71 70 70 72 73 71 71 71 70 69 68 68 68 69 69 68 69 71 75 74 76 78 75 75 75 74 75 75 77 79 76 78 78 77 77 77 77 78 79 77 76 77 78 74 72 71 72
76 78 78 78 76 76 76 74 73 73 72 72 71 70 71 71 71 71 71 72 73 72 70 69 70 69 70 68 68 69 68 69 69 69 73 75 76 75 75 75 76 77 80 79 78 77 76 76 78 76 78 76 77 79 77 77 77 77 77 72 71 71
77 74 77 78 75 76 76 75 77 75 74 74 73 71 71 72 72 71 72 72 72 72 71 69 70 70 69 68 69 68 68 69 69 69 69 73 76 76 75 75 75 75 76 79 78 77 76 77 78 79 78 78 79 79 78 78 78 78 78 74 72 71
75 73 73 77 75 75 75 76 77 75 75 76 75 73 72 73 72 73 73 71 70 71 70 70 70 69 68 69 68 68 69 69 68 69 69 70 71 75 76 77 78 77 77 77 77 77 75 75 76 78 80 79 79 77 78 77 79 79 78 74 73 71
74 73 73 73 74 74 74 78 75 75 75 76 75 75 75 74 74 73 73 71 71 71 69 69 68 70 69 69 68 67 67 68 70 70 70 70 71 70 72 74 75 78 75 76 76 76 80 75 75 76 77 79 78 80 81 80 77 78 78 77 73 73
73 73 72 73 73 73 74 74 75 74 74 73 74 75 75 73 74 75 74 73 70 69 68 69 70 69 70 70 69 68 69 68 69 70 69 69 68 69 69 73 76 75 76 75 75 75 75 75 75 76 75 79 78 77 78 81 78 78 76 77 77 73
72 71 72 72 72 73 73 73 74 73 72 72 73 74 73 74 75 76 75 74 72 70 69 69 71 71 70 71 69 69 71 71 70 70 72 70 69 69 71 72 74 75 75 74 75 75 76 76 75 75 74 74 78 79 78 79 78 78 78 75 76 76
71 71 71 71 71 72 73 72 72 74 72 73 73 75 74 74 75 76 74 74 74 74 74 72 71 71 70 71 72 69 71 72 71 70 69 69 70 69 69 67 69 73 73 74 75 76 75 74 74 75 75 74 75 75 76 77 76 78 79 79 78 75
71 71 71 72 72 72 73 73 72 73 73 72 72 73 74 73 74 73 74 75 74 73 74 74 74 71 70 70 70 70 71 73 73 72 72 70 70 70 69 70 69 70 74 74 78 78 77 75 75 76 76 74 74 73 74 75 77 77 82 77 77 78
71 72 71 72 72 72 73 73 72 72 74 72 72 73 73 74 74 74 74 73 73 73 72 74 73 74 71 72 72 70 70 70 71 71 71 71 70 71 69 70 69 70 73 75 75 77 77 76 78 79 75 76 73 73 73 74 75 74 75 77 76 77
71 71 71 71 72 73 72 72 72 73 72 73 72 71 72 73 72 73 73 73 73 71 72 73 74 73 72 72 72 71 70 70 69 69 69 69 69 70 70 70 69 70 71 72 72 74 75 75 79 80 80 77 76 74 72 73 73 73 74 76 77 80
70 71 71 71 71 71 71 71 70 72 72 71 72 72 72 72 72 73 72 73 72 71 73 72 72 72 71 71 71 71 70 70 69 68 67 67 68 70 70 68 70 71 70 70 72 74 76 75 73 74 73 75 76 75 76 73 73 74 73 75 76 76
70 71 70 71 71 70 70 70 70 69 68 70 70 71 71 71 71 70 71 73 72 72 72 71 71 72 70 71 71 70 71 71 70 68 67 67 68 69 69 68 66 69 70 70 68 71 74 72 70 68 70 72 71 75 74 74 75 75 75 73 73 73
70 70 71 70 69 70 70 70 69 69 70 70 70 69 69 69 69 71 71 71 71 72 72 71 71 71 70 71 70 70 70 71 70 69 68 70 69 67 67 68 69 68 71 70 70 72 70 68 66 66 66 68 69 71 73 74 77 78 77 76 73 72
70 70 71 71 70 68 69 69 69 69 68 70 70 70 71 70 71 72 69 71 71 71 71 71 71 71 71 71 70 69 69 70 71 70 68 68 67 68 68 66 66 67 67 71 71 73 70 69 66 69 69 67 65 65 67 69 71 74 76 76 75 76
70 70 70 70 71 70 70 69 70 70 70 69 69 70 70 70 71 70 71 70 72 69 71 70 72 73 72 71 70 70 69 70 70 70 70 68 68 68 69 68 67 66 66 63 66 70 74 71 69 67 62 64 66 66 62 64 67 70 76 76 76 78
70 70 69 70 69 69 68 69 69 69 70 69 70 69 68 67 68 70 70 69 69 70 70 70 70 71 71 70 70 69 69 70 70 69 69 69 69 69 70 71 70 68 66 63 63 66 68 70 71 71 68 64 62 63 64 68 68 67 73 74 76 78
71 70 69 69 69 69 67 67 66 65 64 64 65 64 64 64 65 66 67 67 70 70 71 70 70 70 71 70 68 69 68 69 69 69 69 69 69 69 69 69 71 69 68 66 65 64 64 67 67 67 68 68 66 62 62 66 66 63 69 73 74 78
70 70 70 69 70 69 68 68 68 68 67 65 64 64 66 66 65 66 67 66 68 68 70 68 68 70 70 70 69 69 68 68 68 68 69 68 67 68 69 70 70 70 70 69 66 63 64 65 65 65 66 66 66 68 68 65 62 66 64 67 71 70
71 70 69 69 69 69 68 68 67 68 67 66 66 64 66 66 66 66 66 67 67 67 69 70 69 69 69 69 69 69 69 68 68 69 69 69 68 69 69 70 70 70 70 69 67 65 65 66 63 63 64 63 63 65 68 69 70 67 65 63 66 72
71 70 69 69 68 69 69 68 67 67 66 67 67 66 67 68 66 66 66 66 65 67 67 68 69 69 69 70 68 68 68 68 67 68 69 69 69 70 69 68 68 68 68 67 68 67 66 66 66 65 63 62 63 63 64 65 67 67 65 64 66 67
70 71 70 69 68 68 69 68 67 67 66 66 67 67 67 66 65 66 65 65 65 66 66 66 67 69 68 69 69 69 67 67 66 67 67 68 68 67 67 67 67 67 68 67 67 67 66 67 67 68 68 66 64 64 65 65 64 64 64 65 63 66
70 71 69 68 68 67 68 68 67 67 67 66 66 66 65 64 65 65 65 65 65 66 65 66 65 66 67 68 67 68 67 66 66 66 66 67 66 68 67 67 67 68 67 67 67 67 66 67 67 67 67 66 66 66 65 64 64 65 64 63 62 64
70 70 69 68 68 67 67 66 67 67 66 66 65 65 64 64 65 64 64 64 65 65 65 66 66 67 66 67 66 66 67 66 65 65 65 65 66 67 67 68 67 67 67 68 68 68 67 65 66 66 66 66 66 67 67 67 68 68 66 64 64 63
69 70 69 68 67 67 66 66 67 66 66 66 65 65 65 65 65 64 64 64 64 65 65 65 65 66 66 66 66 65 65 64 64 65 65 65 65 66 66 66 66 66 66 67 67 67 66 66 66 64 66 67 67 67 67 68 69 68 68 67 65 62
69 70 69 68 67 66 66 66 67 66 66 66 65 65 65 65 65 65 66 65 64 64 64 64 65 64 65 65 65 65 65 64 64 64 65 64 64 65 65 66 66 65 66 66 66 66 66 67 66 65 66 66 66 67 68 68 68 67 66 65 62 61
69 69 69 67 67 66 66 66 66 66 66 65 65 64 64 66 65 64 65 65 65 65 64 64 64 65 66 65 64 64 63 63 63 63 63 63 64 64 64 65 65 64 65 65 66 66 66 66 67 67 65 64 65 65 68 69 68 67 67 66 65 63
70 69 69 67 66 66 66 66 66 65 65 65 65 65 65 65 65 65 65 64 64 64 64 64 64 64 64 64 63 63 63 63 63 63 63 63 63 63 63 63 64 64 63 66 65 65 66 66 66 66 66 66 65 65 66 66 68 68 68 67 65 64
70 70 69 67 66 66 66 65 65 65 65 65 64 64 64 64 64 64 64 64 63 63 64 64 64 64 63 63 62 62 62 62 62 62 62 62 63 62 62 62 62 62 62 64 64 65 65 65 66 66 66 66 65 67 67 68 66 68 68 67 66 65

ECMWFFLT2_sfc_temp_015.txt.gz
Temp
73 73 73 72 71 71 73 74 74 74 74 75 75 75 75 76 75 75 75 74 73 72 71 71 73 72 75 72 73 73 74 75 75 74 74 74 74 74 74 74 73 73 72 72 72 72 72 72 72 72 72 72 73 69 67 69 72 72 71 71 71 72
73 73 73 72 72 72 72 73 71 71 71 73 74 74 73 72 76 71 74 73 71 72 71 71 71 75 71 73 73 73 74 75 75 74 74 74 74 74 74 73 73 72 72 72 72 68 69 71 72 71 72 72 69 67 67 68 70 72 71 70 71 72
74 73 72 72 72 72 71 71 71 71 72 74 75 74 71 73 71 72 72 72 71 71 72 72 72 74 73 74 73 74 74 74 74 74 74 73 73 73 73 73 73 72 72 72 69 66 66 66 66 71 72 68 66 68 68 69 70 70 70 70 70 74
74 73 72 70 71 70 70 70 70 71 70 70 69 72 71 72 72 73 74 72 71 72 72 71 76 77 76 71 72 73 74 74 74 74 74 73 73 73 73 73 73 72 71 70 66 66 67 66 66 66 66 65 65 67 69 69 70 70 69 72 72 74
73 72 71 71 71 69 70 70 70 69 70 68 69 70 70 72 72 73 73 72 74 72 71 69 69 70 68 69 69 70 71 71 71 70 72 69 69 71 69 69 68 69 65 66 66 67 68 67 66 67 66 65 67 68 69 70 71 70 69 70 71 73
71 71 70 69 69 71 71 68 69 69 69 69 70 69 69 70 70 71 70 72 70 69 68 68 67 67 67 67 68 68 69 70 70 70 70 69 68 68 67 67 67 67 66 67 67 68 69 68 68 66 65 66 68 69 69 69 70 70 68 68 71 73
70 69 71 72 70 69 68 69 69 69 68 68 69 69 68 68 70 69 68 68 68 67 68 67 67 67 67 67 67 67 68 69 70 70 70 69 69 68 68 67 66 67 66 67 69 70 69 70 69 69 67 68 68 70 71 70 70 69 68 68 71 73
69 69 68 73 70 69 68 69 70 71 69 70 70 68 67 68 69 67 67 67 69 67 67 67 67 66 67 67 67 68 66 67 67 68 70 71 70 68 69 68 67 68 69 69 70 71 71 73 71 70 70 69 70 70 71 72 70 69 68 68 70 72
67 68 69 70 70 69 68 69 69 68 68 73 68 68 68 68 67 68 67 68 68 66 67 67 66 66 67 67 67 67 67 67 67 67 68 69 71 70 70 69 68 68 68 69 69 70 70 73 71 71 70 70 71 72 72 71 69 69 68 68 68 71
66 67 68 69 68 68 67 67 67 67 69 70 67 67 68 67 67 66 67 68 68 68 68 67 66 66 67 67 67 67 67 67 67 67 67 69 70 70 71 71 70 69 70 70 70 71 69 72 72 72 72 71 72 73 72 72 70 69 68 68 68 69
68 67 67 69 67 66 67 67 68 68 69 67 67 68 67 68 68 68 67 68 68 68 68 68 68 66 67 66 66 67 66 67 67 66 67 68 69 70 71 71 70 70 70 70 71 72 71 71 72 72 72 73 72 73 74 73 72 70 69 68 68 68
65 66 66 68 67 67 66 68 67 68 67 68 68 67 67 68 69 67 68 68 68 68 67 67 67 66 67 67 67 67 67 67 67 67 67 67 68 68 69 71 72 72 71 71 70 70 71 70 70 73 74 73 73 72 73 73 73 71 70 69 68 68
64 64 65 64 66 65 65 70 67 65 66 69 67 67 67 68 68 69 68 68 68 67 66 67 66 66 67 67 67 66 67 67 67 67 67 68 68 67 67 68 69 73 72 71 70 69 73 70 70 70 71 73 72 73 75 74 74 71 70 69 68 68
65 65 65 65 66 65 65 66 67 65 67 66 65 66 67 67 68 68 68 68 68 67 66 67 67 67 67 67 66 66 66 66 67 68 67 67 67 67 66 66 68 70 72 71 69 69 69 68 68 69 69 70 71 72 71 75 72 73 70 70 69 68
64 62 64 63 63 64 64 65 64 65 65 64 66 65 64 65 67 67 69 67 67 67 67 67 68 67 67 66 66 66 66 66 68 68 67 67 66 66 66 65 67 68 68 69 70 69 70 70 68 71 70 68 71 72 72 73 73 74 71 70 69 69
62 62 62 63 62 64 64 62 64 68 62 63 63 65 64 66 66 66 66 67 68 68 67 67 67 67 65 66 66 66 67 68 68 68 67 67 67 66 66 66 67 67 65 67 69 71 69 69 70 71 70 69 69 69 69 70 71 75 75 72 70 68
62 62 62 63 63 63 63 64 63 63 64 63 62 63 63 63 65 67 67 66 66 68 68 68 68 68 66 66 66 67 67 68 68 68 67 67 67 66 66 67 66 67 67 66 69 72 71 68 69 69 70 69 70 69 68 67 70 71 77 72 71 70
61 62 62 62 63 62 63 63 63 63 67 64 63 63 65 64 64 64 66 65 65 66 67 66 67 68 67 68 68 67 67 66 67 67 66 66 66 67 67 66 65 66 68 68 68 69 69 69 71 73 69 71 69 68 68 68 69 69 71 72 71 70
62 62 62 62 64 64 63 63 64 62 62 63 62 62 63 62 63 64 63 64 65 64 65 65 66 66 67 68 67 67 66 66 66 65 65 66 66 67 67 66 65 66 68 68 68 68 68 69 72 72 73 70 68 68 68 68 67 68 69 71 72 73
61 62 62 63 62 63 62 61 62 61 61 61 61 64 63 62 63 62 64 64 64 63 65 66 64 64 64 66 65 66 67 67 66 65 64 64 64 65 66 66 65 66 66 67 69 69 69 67 67 66 67 67 69 69 70 68 68 68 68 70 71 71
61 61 61 62 62 61 61 63 59 58 59 59 61 62 62 61 63 62 63 64 64 64 64 64 65 64 63 65 63 64 65 65 66 65 64 63 65 65 65 65 64 64 66 66 66 68 69 68 66 64 62 66 66 69 70 69 70 70 69 69 70 69
60 61 61 60 60 59 58 58 58 59 59 60 61 60 61 61 62 64 63 62 63 62 63 63 64 63 65 65 64 63 63 64 65 64 64 64 64 65 64 65 65 64 66 65 65 67 68 68 65 63 62 61 60 62 65 67 70 71 72 70 70 70
61 60 60 61 60 61 59 60 58 60 58 60 62 60 60 62 62 64 62 63 62 62 63 63 63 63 64 64 64 63 63 63 63 64 63 63 64 65 64 63 64 64 64 66 66 68 67 67 63 64 62 61 58 62 61 65 65 69 71 72 71 71
62 60 61 62 62 60 61 61 60 60 60 59 61 64 62 62 62 61 64 63 62 61 62 61 62 64 63 62 62 62 63 63 63 63 63 63 63 65 64 64 63 64 64 62 63 64 67 66 66 64 59 60 59 59 56 60 63 66 69 71 71 73
63 60 61 62 61 61 62 60 60 61 60 60 61 59 58 60 58 62 61 60 63 62 63 61 62 62 63 62 61 61 62 62 63 62 63 63 63 63 66 66 65 64 64 63 62 62 65 65 66 66 63 60 59 58 58 59 61 63 66 67 70 72
62 60 62 60 62 62 62 59 58 58 57 58 57 57 56 56 59 57 59 60 61 61 62 62 62 62 62 64 61 61 61 61 62 61 63 62 62 63 62 63 64 64 64 64 63 61 62 64 65 65 63 64 63 60 60 63 62 57 63 67 69 73
63 62 62 61 61 62 60 59 59 59 58 57 55 57 56 57 56 59 57 59 61 62 62 63 61 62 61 61 61 61 61 61 61 61 62 61 62 61 63 63 64 63 64 64 63 61 61 62 63 63 64 64 64 63 63 61 59 61 58 59 65 66
63 63 62 62 61 61 61 60 59 59 59 57 58 57 57 57 56 58 58 60 60 60 61 61 61 60 62 63 62 60 61 60 60 62 63 62 61 62 63 63 62 63 63 63 63 62 61 62 61 61 63 63 63 63 63 63 63 62 59 58 60 64
63 62 62 62 62 61 61 60 60 59 58 58 59 59 58 60 59 58 57 59 58 62 60 63 62 62 61 62 63 62 60 59 59 59 61 62 62 62 61 61 61 62 61 62 62 63 62 61 62 61 61 60 61 61 62 62 63 63 61 59 59 61
63 62 62 62 62 61 60 61 59 58 57 58 60 59 58 57 57 56 57 56 58 58 58 59 60 62 62 61 61 60 60 59 59 60 62 60 60 60 61 61 61 60 60 59 61 62 62 62 62 63 63 62 60 60 60 60 60 61 61 62 58 60
63 62 62 62 61 61 60 60 61 59 58 58 58 58 57 56 57 56 56 56 56 57 57 57 58 59 60 61 61 61 60 59 59 60 60 60 59 59 60 60 61 62 61 61 61 61 61 61 62 62 62 62 62 61 60 59 60 61 61 60 58 59
62 62 62 62 61 61 60 59 61 60 58 59 59 59 57 58 57 57 56 56 57 56 56 58 57 58 58 58 59 60 60 60 59 58 58 58 59 60 61 60 60 60 60 60 61 61 61 60 61 62 62 63 63 63 63 62 63 63 61 61 60 59
62 61 62 61 61 61 59 59 60 59 59 59 59 59 57 57 57 57 56 55 55 56 56 57 56 57 57 58 57 58 59 58 57 56 57 57 57 57 58 58 59 59 60 59 60 60 60 60 61 60 61 62 63 63 64 65 64 63 63 62 61 60
63 61 61 61 61 60 60 59 59 59 59 58 58 58 57 58 57 57 57 57 56 55 55 54 54 55 57 58 58 58 58 57 57 56 57 56 56 57 57 58 59 59 59 60 59 59 59 60 59 60 61 61 62 63 63 64 64 64 63 61 59 59
62 61 61 61 60 60 59 59 59 59 59 58 58 57 57 58 58 57 57 57 57 56 56 54 55 55 57 57 57 57 58 57 56 56 56 56 58 57 57 58 58 58 59 59 60 60 60 59 60 61 60 61 61 62 62 64 63 63 64 63 63 61
63 62 61 60 60 60 59 60 58 58 59 59 59 59 58 57 57 58 57 56 55 54 54 54 55 57 57 57 56 57 56 56 55 55 55 55 55 55 55 56 56 57 56 60 59 58 58 59 59 59 60 61 61 61 62 62 63 64 64 63 63 62
62 62 61 61 61 60 59 59 58 58 58 58 58 57 57 56 56 57 57 55 54 54 54 54 55 56 56 56 55 55 55 55 55 55 54 55 55 54 55 55 56 55 56 57 58 58 59 59 59 60 60 60 60 61 61 62 63 63 63 63 62 62

ECMWFFLT2_sfc_temp_021.txt.gz
Temp
68 69 69 70 71 72 73 75 74 74 74 74 74 75 75 75 74 75 75 74 72 71 70 71 72 71 75 72 72 73 74 74 74 74 74 74 74 73 73 73 72 72 71 71 71 71 71 71 71 71 71 71 70 65 66 66 66 67 66 67 68 66
68 68 69 70 71 71 71 73 70 71 72 73 74 74 73 71 74 70 74 72 70 71 70 68 70 74 70 71 72 73 74 75 74 74 73 74 73 73 73 73 72 72 71 71 71 64 63 67 70 71 70 70 64 62 65 65 65 66 66 67 67 68
69 69 68 69 70 71 70 70 70 70 72 74 74 74 70 72 70 70 70 69 69 70 69 69 69 71 70 72 71 73 74 74 74 74 73 73 73 72 72 72 72 71 71 71 65 61 59 59 62 69 68 63 61 61 64 65 65 66 66 66 65 71
69 69 68 68 69 70 69 70 70 70 70 70 70 70 68 69 69 69 69 68 68 69 68 68 73 75 75 71 71 72 73 74 73 73 73 72 72 72 72 72 71 71 70 67 62 62 61 60 60 61 61 62 62 61 63 64 64 65 66 68 66 72
69 68 68 69 70 69 69 69 69 70 69 67 68 68 68 67 68 68 68 68 68 68 68 67 67 70 67 68 67 69 70 70 70 69 72 66 68 69 70 67 67 68 64 63 62 61 61 61 59 61 61 61 61 61 62 65 64 64 65 67 66 71
67 67 68 69 68 69 70 68 68 69 67 67 67 67 67 66 67 67 67 68 67 66 66 67 66 66 67 67 67 67 67 68 67 68 69 66 66 66 65 67 67 66 63 62 63 62 62 63 61 60 61 61 61 61 61 63 64 64 65 65 67 72
66 65 66 68 68 68 68 68 68 68 66 65 66 66 65 65 65 66 67 68 67 65 65 65 65 65 66 66 67 67 67 67 67 67 67 66 66 66 65 66 65 64 61 61 63 62 62 62 61 62 61 62 61 62 61 64 64 63 64 65 67 72
64 65 65 67 68 69 68 67 68 69 66 69 67 65 65 65 66 65 66 67 68 66 65 64 65 65 65 65 66 67 67 67 67 67 66 66 65 64 64 64 62 61 61 62 63 63 62 63 62 61 63 62 61 61 61 62 64 64 64 65 66 71
64 65 65 66 66 67 68 68 68 68 66 70 65 65 65 66 65 65 65 66 68 65 65 65 65 65 65 66 66 65 65 66 67 67 66 65 65 64 63 63 62 61 61 61 61 62 63 63 62 61 61 62 62 62 61 62 63 63 63 64 65 68
64 65 65 65 65 65 66 67 67 68 67 69 65 65 65 64 64 64 65 66 66 65 65 65 64 64 65 65 65 65 65 65 65 66 66 65 64 64 63 62 62 63 63 62 63 63 63 63 64 63 62 63 63 63 63 62 63 63 64 64 65 66
64 64 63 64 63 64 65 65 67 67 66 65 67 67 65 64 64 64 65 65 65 66 65 65 65 64 64 65 65 65 65 65 65 64 65 65 65 64 63 63 63 63 63 62 63 63 63 64 63 65 64 64 64 63 64 64 64 65 65 64 65 65
60 62 62 62 64 64 63 64 65 65 65 65 66 64 65 65 66 65 65 64 64 65 66 65 65 64 64 64 64 65 65 64 65 65 65 66 66 66 65 64 64 64 64 64 64 64 64 63 63 65 66 66 65 64 63 63 65 65 66 65 64 65
58 58 59 60 61 59 60 63 62 62 64 66 65 66 65 66 65 65 64 64 64 65 65 65 64 64 65 64 65 65 65 65 65 66 65 65 66 65 65 64 64 65 63 64 63 64 65 64 63 65 65 66 65 65 65 64 64 65 65 66 65 65
59 59 59 59 60 59 59 60 60 59 63 64 63 63 65 65 65 64 65 66 64 65 64 64 64 64 64 63 64 65 66 65 65 65 64 65 65 64 64 64 64 63 66 62 62 63 63 63 63 64 64 66 65 65 63 65 64 65 65 66 66 65
60 59 60 59 59 59 59 59 58 57 59 60 61 61 61 62 63 64 65 65 65 65 64 64 65 66 65 64 64 65 65 66 66 65 65 65 64 64 64 64 64 64 63 62 62 63 63 63 63 65 65 64 66 65 63 65 65 65 65 65 65 66
58 58 57 59 57 58 58 58 59 62 58 58 58 58 57 59 63 63 65 66 65 65 65 63 64 65 64 64 64 64 65 65 65 66 66 65 65 64 64 64 64 65 63 63 63 64 63 63 63 64 65 64 64 64 62 63 64 65 66 64 65 65
58 59 57 57 56 56 56 57 57 58 58 57 57 57 58 60 63 62 63 63 63 65 65 63 63 65 65 64 64 64 65 64 65 65 65 66 65 64 64 65 64 64 64 63 64 65 65 62 64 64 65 64 64 63 63 63 64 65 67 64 64 64
58 59 58 57 56 56 56 57 56 58 60 58 57 57 58 60 60 59 60 60 61 62 62 61 63 64 64 65 65 65 64 64 65 65 65 66 65 65 64 64 63 64 64 64 63 63 63 64 65 66 64 64 64 63 62 62 62 63 64 64 63 64
59 57 56 57 57 56 55 55 54 56 57 57 58 57 58 58 58 59 59 59 60 61 61 60 61 63 63 64 64 64 64 64 64 64 64 65 64 65 64 63 63 63 64 64 64 64 64 63 65 65 65 65 64 64 63 61 62 62 63 65 65 66
57 56 55 56 56 55 55 55 56 56 57 56 56 59 58 57 57 59 60 59 58 58 60 60 58 59 60 61 61 63 64 64 63 63 63 63 63 63 63 64 63 63 63 63 64 64 64 63 64 63 63 63 64 65 67 64 61 62 63 63 64 64
56 54 57 57 55 54 55 54 53 53 54 53 56 56 56 56 56 57 57 58 59 59 58 60 59 58 58 61 58 58 61 64 64 63 63 62 63 63 63 63 63 63 63 63 62 64 65 64 62 61 59 60 61 62 63 64 64 63 63 63 62 63
55 55 56 56 56 53 49 51 51 53 51 53 56 55 56 56 57 57 57 57 57 57 57 58 59 58 58 58 58 58 60 62 64 64 63 62 63 64 63 63 63 62 64 62 62 63 64 63 61 59 58 59 59 62 62 61 63 64 64 63 62 63
55 56 56 55 55 56 52 52 51 51 53 53 53 53 54 55 57 55 54 55 55 56 57 57 57 59 58 57 57 58 58 60 62 63 62 61 61 61 61 62 62 62 61 63 62 64 64 63 60 60 59 58 54 57 56 57 61 63 65 64 63 63
56 55 55 56 58 53 54 52 53 53 52 52 56 56 53 53 53 55 57 55 55 55 56 56 57 58 56 55 56 57 57 58 58 60 60 60 60 61 61 62 62 62 62 60 61 61 63 63 62 61 56 57 56 56 54 57 57 60 62 64 63 64
56 56 55 57 55 55 57 55 55 55 56 57 56 53 56 55 51 57 57 56 57 55 55 55 55 57 58 55 55 55 57 57 57 57 59 58 58 59 60 61 62 61 61 60 60 61 62 63 63 63 61 57 56 55 56 56 57 58 60 64 64 65
56 54 55 54 55 57 58 57 56 55 54 54 54 53 53 52 54 54 54 54 54 54 55 54 54 55 58 58 55 54 55 57 57 57 57 56 57 57 57 58 60 61 61 61 61 60 60 62 62 62 62 62 61 57 56 58 58 54 60 59 61 65
56 55 55 54 55 58 55 56 57 57 55 55 54 52 49 48 50 51 52 53 56 54 53 55 54 53 54 56 53 54 55 55 57 57 58 57 56 56 57 58 58 59 59 60 60 59 59 60 60 61 61 62 61 61 62 59 56 57 56 58 61 58
56 57 55 55 55 57 57 55 54 53 54 53 54 54 51 50 49 52 51 54 53 54 52 53 55 54 54 56 54 53 53 54 55 57 57 55 54 55 56 57 57 56 57 57 57 57 56 57 57 58 61 60 61 62 62 62 62 58 57 55 58 63
56 56 55 55 56 55 58 56 55 54 54 53 53 52 52 55 53 53 52 54 53 52 53 51 52 53 53 55 58 53 52 53 54 55 57 56 54 55 54 54 54 55 54 55 56 55 54 54 55 56 57 58 59 60 61 61 61 61 58 56 57 58
56 55 55 55 56 55 55 56 54 53 54 53 52 51 51 52 51 51 53 53 51 52 51 52 53 53 53 53 54 54 52 52 52 55 55 52 53 53 53 53 52 53 53 53 53 54 54 54 54 54 56 57 58 58 59 60 60 60 60 59 56 56
57 56 56 56 55 55 54 55 56 54 55 54 52 52 52 51 50 51 52 52 52 51 49 51 50 53 52 53 53 55 52 53 53 55 54 53 52 53 52 52 52 52 52 52 52 52 52 53 53 53 54 54 55 56 56 56 57 59 58 57 57 58
56 56 55 56 55 55 55 55 55 55 55 55 53 54 53 53 51 52 50 52 50 51 51 50 50 51 52 50 53 51 52 52 53 51 52 51 52 52 52 52 52 52 51 51 51 53 51 52 51 52 52 54 54 54 55 56 58 59 58 58 58 57
57 56 56 56 56 56 54 55 55 54 55 55 54 54 53 53 52 52 50 50 50 51 50 54 51 52 51 51 52 52 52 52 51 52 51 52 51 51 51 51 52 51 51 51 51 50 51 50 50 51 52 53 54 54 54 55 56 58 58 58 58 56
59 58 56 56 56 56 56 56 55 55 54 55 54 54 53 54 52 52 52 52 52 51 50 50 51 51 50 50 51 52 52 51 50 51 53 52 51 51 51 52 51 51 51 51 51 51 51 51 51 51 51 52 52 52 53 54 55 56 57 57 56 56
58 57 56 56 56 56 56 55 55 54 55 54 54 54 54 54 53 52 51 52 52 50 50 51 49 50 51 50 50 50 50 49 50 50 51 51 52 50 50 51 51 51 51 50 50 50 50 50 51 50 50 51 51 52 52 54 54 55 56 57 57 57
59 58 57 57 57 57 57 56 55 54 54 55 56 55 54 54 52 53 53 53 52 51 52 50 48 50 50 50 50 50 50 48 49 49 50 50 50 50 50 50 50 50 50 52 50 50 50 49 50 49 49 50 50 51 52 53 54 55 56 56 57 58
59 58 58 58 57 57 56 55 55 55 54 54 54 54 54 53 53 52 53 52 52 52 50 49 51 50 50 49 48 48 49 48 48 48 49 49 50 49 49 49 49 49 49 49 50 49 49 50 50 50 50 50 50 51 51 52 53 54 55 56 56 57

ECMWFFLT2_sfc_temp_024.txt.gz
Temp
71 71 72 73 73 72 73 74 74 74 74 74 74 75 75 75 74 75 74 74 72 71 70 71 72 72 75 72 72 73 74 74 74 74 74 74 74 73 73 73 72 72 71 71 71 71 71 71 70 70 70 70 70 67 66 67 67 68 68 69 69 67
70 70 72 72 72 72 71 73 71 71 72 73 74 74 74 72 74 71 74 71 69 71 69 69 70 72 71 72 73 73 74 74 74 74 74 74 73 73 73 73 72 71 71 71 70 66 66 69 70 70 70 69 65 65 66 67 67 68 68 68 68 69
69 70 71 71 71 72 71 71 70 70 72 73 74 73 70 72 69 69 69 69 69 69 69 69 69 71 70 72 72 73 73 74 74 74 74 73 73 72 72 72 72 71 70 70 65 62 62 62 64 68 66 63 63 64 65 66 66 67 68 68 67 71
69 70 70 70 71 71 70 71 71 70 70 70 70 70 69 69 69 69 69 68 68 69 68 68 72 74 74 71 71 72 73 74 74 74 73 73 73 72 72 72 71 71 68 67 63 63 63 62 61 60 61 63 64 63 65 66 66 66 67 70 67 72
69 69 69 70 70 70 70 70 70 71 70 68 68 69 69 68 68 68 68 68 69 69 69 68 68 69 68 68 68 69 70 70 70 69 72 68 68 69 70 68 68 68 66 66 64 62 63 62 62 62 61 62 63 63 65 66 66 66 67 68 68 71
69 68 67 69 69 70 70 69 69 70 69 69 69 69 69 69 68 68 69 68 69 68 68 68 67 67 67 67 68 68 68 68 68 68 70 67 67 67 67 68 68 67 66 65 65 64 64 63 62 62 62 63 63 63 63 65 66 66 66 67 68 71
67 67 67 69 69 70 68 68 69 69 68 66 68 68 68 67 67 67 69 70 68 66 67 67 66 65 66 67 68 68 68 67 68 67 68 68 67 68 68 67 67 66 65 65 65 64 62 62 62 64 63 63 63 64 63 64 65 66 66 66 68 71
66 67 67 69 69 69 68 67 68 69 67 68 68 67 67 65 65 66 68 69 69 65 66 66 66 66 66 66 67 68 68 67 68 68 68 67 67 67 67 67 66 65 65 64 65 64 64 64 61 62 64 63 63 63 63 64 65 65 66 66 67 70
66 67 67 69 69 69 68 68 68 66 65 70 66 66 65 64 64 65 66 68 69 65 64 65 65 66 65 67 68 67 65 66 66 68 67 66 67 66 66 66 65 65 62 62 62 63 64 64 62 62 63 64 64 64 63 63 65 65 66 66 66 68
66 66 67 68 68 68 68 68 67 67 65 68 64 65 65 64 63 64 65 66 67 66 65 65 65 65 65 66 66 64 64 64 65 66 66 66 66 66 66 65 63 62 63 61 63 64 65 63 63 64 62 64 64 65 64 64 64 65 65 66 66 67
66 67 66 66 66 66 67 67 67 67 67 66 67 67 65 64 64 63 64 65 65 66 66 65 65 64 64 64 64 64 64 64 64 64 65 66 65 65 64 64 63 63 62 62 64 64 65 64 64 65 64 65 65 64 65 65 65 65 66 66 66 66
64 65 65 65 66 65 66 67 67 67 67 66 66 65 64 64 65 64 65 64 64 65 66 65 64 63 64 64 64 65 65 64 64 64 65 65 65 65 65 65 64 64 64 64 64 64 64 64 64 65 65 66 66 65 65 65 66 65 66 66 66 66
60 61 62 64 64 63 64 65 65 64 64 66 66 65 63 64 64 65 65 65 65 66 65 64 63 64 65 64 64 64 64 65 64 64 64 65 66 65 65 64 64 65 64 64 64 64 65 64 64 64 65 66 65 66 66 66 65 65 65 66 66 67
58 58 59 60 61 61 61 62 62 61 65 65 66 64 64 65 66 65 65 65 65 65 65 64 64 64 64 64 64 65 65 65 65 64 64 64 64 64 64 64 64 64 66 63 63 63 63 64 64 64 65 66 65 66 65 66 65 66 66 66 67 66
59 58 60 59 59 58 57 57 56 57 62 64 64 64 64 65 65 64 65 65 66 66 65 64 65 64 64 64 64 64 65 66 66 64 64 64 64 64 64 64 64 64 63 63 63 64 64 63 64 65 66 65 66 66 64 66 65 66 66 66 66 66
56 57 56 58 55 56 56 56 58 60 58 59 59 59 58 62 65 65 66 65 66 66 66 65 66 65 64 64 64 64 64 65 66 65 65 65 65 63 64 64 64 64 63 64 65 64 63 64 64 65 66 65 64 65 64 64 65 66 67 66 66 66
56 56 56 55 54 54 55 55 55 56 56 56 55 56 57 62 65 65 65 63 64 65 64 64 65 65 64 65 64 64 65 65 65 65 65 65 64 64 63 64 63 64 64 63 64 64 64 64 64 66 66 66 65 64 64 64 65 65 67 65 65 66
55 56 56 55 55 55 55 55 56 57 59 56 56 56 59 63 62 61 61 60 61 63 63 62 64 65 65 65 65 65 64 64 64 64 64 65 64 64 64 64 63 63 64 64 63 63 63 64 65 66 65 66 66 64 64 64 64 65 66 66 65 65
57 55 55 55 56 55 54 55 54 56 56 56 57 56 57 59 58 59 58 59 60 61 62 60 61 62 62 64 65 64 63 63 64 64 63 64 63 64 63 63 63 63 64 64 64 64 64 63 64 64 65 66 66 66 64 64 64 64 64 66 66 67
54 54 54 54 56 54 55 55 57 56 57 56 56 58 57 56 58 58 59 58 58 58 60 60 58 59 60 61 62 63 64 64 63 63 62 62 63 63 63 63 63 63 63 63 64 64 64 63 63 62 63 64 66 66 66 64 63 64 65 65 65 66
54 54 57 55 54 53 55 52 52 53 54 54 56 56 57 55 56 57 56 57 58 58 58 59 59 58 57 60 58 61 63 64 64 63 63 62 63 63 63 62 63 63 63 62 63 64 64 64 62 61 60 62 63 65 65 65 64 64 64 65 65 65
53 54 55 56 55 50 49 53 53 54 52 53 54 54 56 55 56 57 56 56 57 57 57 58 59 58 58 57 59 60 62 63 64 63 63 63 63 63 63 62 63 62 63 62 61 63 63 63 60 59 58 58 60 64 63 63 64 65 65 65 64 64
54 55 54 55 54 55 50 50 50 51 53 53 51 51 52 54 56 55 54 54 55 55 57 57 57 59 58 57 57 58 59 61 61 63 62 61 61 61 61 62 62 61 61 62 62 63 63 64 59 60 60 58 56 57 60 62 62 64 65 65 64 64
55 54 54 55 57 51 52 50 51 53 51 51 55 55 53 52 53 55 56 54 55 54 55 56 56 58 57 56 57 57 57 57 58 59 59 59 59 60 60 61 62 61 61 59 61 61 63 63 62 60 56 57 57 55 55 57 58 62 63 64 64 64
55 54 54 57 54 54 55 54 54 54 54 56 56 53 54 53 52 57 56 55 55 53 54 54 55 57 59 56 56 57 57 57 57 57 58 57 57 58 59 60 60 60 60 59 59 61 62 63 63 63 60 57 56 55 56 57 58 60 61 64 65 66
54 53 54 53 53 56 57 55 54 54 54 52 53 53 52 53 53 53 55 54 54 52 54 54 54 55 57 57 56 56 56 57 57 57 57 56 57 57 57 58 59 59 59 59 60 58 58 61 61 62 62 62 61 57 57 58 59 56 61 61 62 65
55 54 54 53 53 57 54 55 56 56 55 55 54 51 48 48 51 50 51 54 54 53 53 54 54 54 55 56 54 55 56 56 56 56 58 56 56 56 56 57 58 58 58 58 58 56 56 57 59 60 61 62 62 61 62 59 56 58 56 59 62 63
55 56 54 54 53 56 56 54 53 52 54 52 53 54 50 49 47 51 52 52 53 52 52 52 53 54 54 56 55 53 54 55 56 56 57 55 54 54 55 56 56 56 56 57 57 56 55 56 55 56 59 59 60 62 62 62 62 59 57 56 58 63
54 55 53 53 55 53 56 55 54 53 53 53 52 52 51 53 51 52 51 51 52 52 52 52 52 53 53 56 58 54 54 54 54 55 56 54 54 54 54 53 54 54 54 55 56 56 55 55 55 55 56 56 58 58 60 61 61 61 58 56 57 59
55 54 54 53 55 54 54 55 53 52 54 52 52 50 51 51 50 50 52 51 51 52 50 52 50 51 53 53 54 55 54 54 54 55 55 53 54 53 53 53 53 53 53 54 53 55 54 54 55 55 55 56 55 56 57 58 59 58 59 60 56 58
56 55 54 53 54 54 53 54 54 53 53 52 50 51 51 51 50 50 52 51 52 51 50 51 48 50 51 52 55 56 54 54 55 57 55 54 53 54 53 53 53 53 53 53 53 53 53 53 54 54 54 54 54 55 54 54 55 56 56 55 55 56
55 54 53 53 53 53 53 53 53 53 53 53 52 53 53 52 51 52 51 51 49 50 51 51 50 52 52 52 54 53 54 53 53 52 53 53 53 53 53 53 53 54 53 52 53 53 52 52 52 52 53 54 54 55 55 55 56 56 55 55 55 54
56 54 54 53 53 53 52 53 53 53 53 54 53 54 54 53 51 52 50 50 49 51 50 53 53 54 53 51 53 53 53 53 53 54 52 52 52 52 52 53 53 52 52 53 52 52 52 52 51 52 53 53 54 54 55 56 56 56 56 56 56 54
57 55 54 53 53 53 53 54 53 53 53 54 53 53 53 54 52 52 51 52 52 52 52 53 51 52 52 50 52 54 54 53 52 52 53 52 52 53 52 53 52 52 52 52 51 52 52 52 51 52 52 52 53 53 54 55 55 56 55 55 54 53
57 55 54 54 53 54 54 53 53 53 53 53 54 53 53 54 53 52 51 52 52 50 52 51 51 52 51 52 52 51 52 52 51 51 52 52 52 51 52 53 53 51 52 51 51 52 51 51 52 52 52 51 52 53 53 54 54 55 56 56 55 55
58 57 55 55 54 54 55 54 53 53 53 53 55 54 53 53 52 53 52 53 53 51 52 51 50 50 51 52 52 52 52 51 50 51 52 51 51 51 51 52 51 50 51 53 51 51 51 51 51 51 51 51 51 52 53 53 54 55 55 56 56 56
57 56 55 56 55 55 55 53 53 53 53 53 53 53 54 53 52 52 52 52 53 52 51 50 51 51 52 50 52 51 51 50 50 50 50 51 50 50 50 51 51 50 51 50 51 51 50 50 51 51 51 51 52 52 53 53 53 54 55 55 56 56

ECMWFFLT2_sfc_temp_027.txt.gz
Temp
76 77 77 77 76 77 76 74 74 74 74 74 74 75 75 75 75 76 76 75 73 77 77 77 75 77 74 75 73 73 74 75 74 74 74 74 74 73 73 73 72 72 72 71 71 71 71 71 71 71 71 71 71 77 79 78 78 79 79 78 77 79
76 76 77 77 77 77 77 76 77 76 77 77 76 75 77 78 76 78 75 76 78 78 77 78 75 75 77 76 75 72 74 75 74 75 74 74 74 73 73 73 72 72 71 71 71 76 74 71 70 70 71 70 77 78 77 77 77 79 79 78 77 76
76 76 76 77 76 76 77 77 77 76 77 76 77 77 78 78 79 79 79 79 78 78 78 77 77 76 77 74 74 73 73 74 74 74 74 73 73 72 72 72 71 71 70 69 73 75 77 77 75 68 71 75 78 77 76 76 77 78 79 79 79 74
74 75 76 75 76 76 76 77 77 78 77 77 78 78 78 78 79 79 79 78 78 78 77 77 74 74 72 72 73 72 71 73 73 73 74 75 73 73 72 71 71 70 71 74 74 75 78 78 77 76 76 77 78 77 76 76 78 79 79 79 81 72
73 74 74 73 75 74 74 75 76 76 76 76 76 76 77 77 77 78 78 78 80 77 77 76 75 77 76 75 75 75 74 75 77 78 74 77 77 79 77 79 76 74 75 75 74 74 76 77 77 77 76 77 77 77 77 77 78 79 79 79 78 71
72 72 74 75 75 75 74 74 75 75 74 75 74 73 74 76 76 76 77 79 77 75 74 74 74 75 76 75 73 73 75 76 77 77 77 77 78 77 77 78 77 74 73 73 73 73 75 76 77 77 77 76 77 77 78 78 78 77 78 78 78 71
72 72 73 75 73 76 75 74 72 75 75 73 73 72 72 74 74 74 76 77 76 73 73 74 74 74 74 74 74 72 72 74 76 77 77 77 76 77 77 77 76 74 73 73 73 74 74 75 76 78 77 77 77 78 78 79 79 78 79 78 77 70
73 74 74 74 74 75 74 73 71 72 73 71 72 73 73 74 74 73 73 74 73 73 72 72 73 73 73 73 73 73 72 72 73 75 77 77 76 76 75 76 75 74 72 72 74 74 75 76 77 77 76 77 77 77 77 79 78 77 78 78 79 73
72 73 73 73 74 75 75 74 73 71 71 72 72 72 71 72 72 72 72 73 73 71 72 72 72 73 73 72 71 70 68 67 66 69 72 73 75 74 74 74 74 74 73 72 71 71 74 76 76 77 77 77 77 78 77 77 77 76 77 78 78 78
71 71 72 73 73 74 74 74 73 72 71 72 70 70 70 71 71 72 71 72 72 72 72 73 72 72 70 68 68 68 68 66 66 67 68 70 72 73 74 74 74 74 75 74 73 71 72 75 78 77 78 79 78 79 78 78 78 78 77 77 78 79
71 71 73 73 73 73 74 73 73 72 73 72 72 71 69 70 71 71 71 69 70 69 67 67 68 67 67 67 68 68 68 67 66 66 67 69 71 70 72 73 73 74 76 77 75 71 72 74 76 79 79 80 80 79 79 79 79 80 79 77 78 78
70 71 72 74 72 73 73 74 74 73 72 71 71 70 71 71 71 70 70 70 68 68 68 68 67 66 67 67 67 68 68 67 66 67 68 68 69 69 71 73 73 73 74 76 75 73 71 72 75 78 79 80 81 79 80 80 80 80 80 79 78 78
70 70 71 71 72 73 73 75 74 74 75 72 71 71 72 72 70 69 69 70 69 67 67 68 68 68 68 68 68 68 67 67 67 69 68 67 68 69 69 69 71 73 73 74 74 75 74 71 73 75 76 79 79 80 81 81 80 79 80 80 80 80
68 69 69 70 70 71 72 72 71 71 71 71 72 72 72 72 71 68 68 67 68 67 67 68 70 68 67 68 69 69 68 69 69 67 68 68 67 68 68 69 69 72 73 73 74 74 75 74 72 72 74 76 77 78 79 81 80 80 79 79 80 79
67 68 67 67 68 68 68 70 70 70 70 70 71 70 71 71 71 72 71 70 68 67 68 69 70 70 69 69 70 69 69 69 68 68 68 67 66 67 68 69 69 70 72 72 73 72 73 74 74 73 72 73 76 78 77 79 80 79 80 79 78 79
68 67 68 68 68 69 69 70 71 70 69 68 70 69 69 70 71 72 73 72 71 71 70 69 70 69 68 69 69 69 69 70 71 70 70 68 67 67 66 67 69 70 68 70 70 71 73 73 73 73 73 72 73 74 76 78 78 80 81 79 80 78
69 69 68 68 67 67 68 69 69 69 69 68 70 70 69 68 70 72 72 73 72 72 72 71 70 70 69 69 68 69 69 70 70 69 69 69 67 67 67 66 66 68 69 69 70 68 68 70 71 72 74 73 73 73 75 76 78 79 80 77 78 79
68 68 68 67 67 68 68 68 69 70 69 70 69 71 70 70 71 72 73 73 73 73 72 71 71 71 71 70 70 70 70 69 70 70 69 69 68 68 66 65 65 66 67 68 68 68 68 69 71 73 74 75 73 73 74 75 76 75 78 79 77 78
67 66 66 66 66 66 66 68 68 69 69 69 69 69 71 72 72 73 73 72 73 73 72 72 72 72 72 71 71 70 70 69 69 69 69 68 67 67 66 65 64 64 66 68 68 69 68 68 70 72 74 75 74 74 75 76 75 76 77 79 80 79
67 67 67 67 69 69 70 70 69 69 69 69 69 69 70 72 72 73 72 72 72 72 73 72 72 71 71 70 70 70 70 70 69 69 68 67 66 66 66 66 65 65 65 67 67 67 67 67 67 67 66 69 72 72 74 75 76 77 77 78 78 79
65 67 68 69 70 70 69 68 69 69 68 68 69 69 69 70 71 71 71 72 72 72 71 71 71 71 70 69 69 70 69 69 70 70 69 68 69 68 69 67 66 66 65 65 66 67 67 68 65 63 63 64 67 72 72 72 75 77 78 78 79 78
65 67 68 69 69 69 69 71 70 70 69 69 70 70 69 70 69 69 69 70 71 71 71 71 71 71 69 70 69 68 68 68 69 69 69 69 68 67 67 67 67 65 67 67 66 67 66 66 63 60 59 59 61 64 67 71 73 77 78 79 77 76
66 67 68 68 69 69 67 66 69 68 70 67 67 67 70 69 70 71 68 69 69 70 71 71 71 71 70 69 69 69 68 69 70 70 69 67 67 67 67 66 67 65 64 66 65 66 65 66 62 62 61 59 57 58 62 67 70 72 74 76 76 77
65 67 67 68 69 67 66 65 66 66 66 69 68 67 67 68 69 70 69 69 69 69 70 71 72 73 71 70 70 69 69 69 69 69 69 68 68 68 67 67 67 66 66 63 64 64 66 67 66 62 58 59 58 58 56 58 63 68 72 73 73 75
66 66 67 68 67 67 67 67 66 66 67 66 67 68 68 68 69 69 69 69 68 69 70 70 71 71 72 69 69 69 69 69 68 68 69 68 67 67 69 69 68 67 67 65 63 62 62 65 66 65 62 58 57 56 58 59 61 62 68 69 73 75
67 67 67 67 67 68 69 67 67 66 65 65 64 65 65 65 67 68 68 67 69 69 70 69 70 71 71 70 68 68 68 69 68 68 68 68 67 67 66 67 68 69 67 67 66 65 62 63 62 62 63 63 62 59 58 59 60 58 66 68 70 74
66 67 66 66 67 68 68 68 67 68 68 66 65 66 67 67 68 68 68 68 68 68 70 69 69 70 69 69 68 68 67 68 68 67 67 67 66 65 66 66 68 68 68 67 67 65 64 64 65 64 64 64 63 63 63 60 58 60 59 62 67 67
67 67 66 66 66 68 68 68 67 67 67 67 67 66 66 66 66 67 68 67 68 68 68 70 69 69 69 69 68 68 68 67 67 68 68 67 66 66 66 66 65 66 66 66 66 65 64 65 63 63 64 63 63 63 64 64 63 60 59 58 60 66
66 67 66 65 66 67 69 67 67 67 65 67 66 67 67 67 67 66 66 67 68 68 68 67 69 68 69 69 68 67 67 67 67 67 68 67 66 66 64 64 64 64 64 64 65 64 64 64 65 63 64 63 64 63 64 64 64 63 59 58 59 60
66 67 66 65 66 66 67 67 67 66 66 65 65 65 67 66 66 65 66 66 67 67 68 68 67 68 68 69 68 68 67 66 66 66 67 66 65 64 64 63 63 63 63 63 64 63 63 63 64 64 64 63 63 63 65 64 64 63 63 62 57 58
66 67 66 65 65 65 66 66 67 66 66 66 64 65 64 64 65 65 66 66 66 67 68 67 67 67 67 68 67 68 67 67 67 66 66 66 65 66 64 64 63 63 63 62 63 63 62 62 63 63 62 63 63 63 61 60 62 63 62 61 61 62
65 66 65 65 65 65 65 65 67 66 66 67 65 65 65 64 64 65 66 66 66 67 67 67 67 67 66 67 67 66 66 66 66 66 65 66 66 66 66 65 65 64 63 63 63 62 62 61 61 62 61 62 62 62 62 62 63 62 62 63 62 62
65 65 65 65 64 65 64 65 66 66 66 67 66 67 67 66 66 66 66 66 65 66 66 66 66 66 66 66 66 65 66 66 65 65 65 66 65 66 65 65 65 64 63 63 63 62 62 60 61 61 61 62 62 63 62 63 63 62 63 62 62 60
66 65 65 64 65 64 64 65 65 66 66 66 65 66 67 67 66 67 67 66 66 67 67 66 66 67 67 67 67 67 67 66 66 65 65 65 65 65 65 66 65 64 63 63 63 62 62 62 61 61 62 62 62 63 62 63 62 62 62 61 61 60
65 65 65 64 64 64 65 64 65 65 66 66 66 66 67 68 67 66 66 67 67 68 68 68 68 68 67 66 66 66 66 65 65 65 65 64 65 65 65 66 65 63 63 64 63 63 62 61 61 61 61 62 62 62 62 64 63 63 63 62 61 60
65 66 65 64 64 65 65 65 64 64 64 65 66 67 67 66 66 66 66 66 66 66 68 68 67 67 66 67 66 66 66 65 65 65 65 65 65 66 65 64 64 63 62 64 63 62 62 62 61 61 61 61 62 62 63 63 63 63 64 63 62 62
65 66 65 65 65 65 65 64 64 64 64 64 64 65 65 65 64 65 65 66 67 66 66 66 65 66 65 66 66 66 65 65 64 65 65 65 65 65 65 64 64 63 62 63 63 62 62 62 62 62 61 60 61 62 62 62 63 63 63 63 63 63

ECMWFFLT2_sfc_temp_030.txt.gz
Temp
80 79 79 78 78 77 75 74 75 74 74 74 75 75 76 75 75 76 77 75 73 79 77 78 76 79 73 77 73 71 74 75 75 75 74 74 74 74 74 74 73 72 72 72 71 71 71 72 71 71 71 72 71 80 84 84 84 85 85 86 83 84
81 78 78 78 80 79 78 76 78 75 79 78 76 76 78 81 79 82 75 77 79 77 75 76 76 75 77 76 76 72 73 74 74 75 74 74 74 74 74 73 73 72 71 72 70 79 77 71 70 71 72 71 78 85 83 83 83 86 85 85 84 77
86 84 79 79 77 78 79 80 79 76 76 74 77 79 80 80 80 82 81 78 74 73 77 72 74 77 77 74 74 72 72 73 73 75 74 73 74 73 73 72 72 72 72 70 78 82 82 84 80 70 72 78 85 85 83 83 83 85 86 86 85 73
85 84 84 82 78 77 79 77 76 77 78 74 76 77 79 75 75 78 78 78 76 80 83 74 72 73 74 75 74 71 72 72 73 73 74 75 73 74 72 72 72 71 72 78 82 83 84 86 84 81 82 83 84 84 83 83 84 84 86 85 88 71
85 84 83 82 81 76 75 74 75 80 78 75 78 79 80 77 79 81 78 75 74 80 84 75 76 79 79 80 80 79 78 79 79 80 75 80 81 79 77 81 77 76 81 82 83 83 83 84 82 81 82 83 83 83 84 84 85 85 85 86 82 72
83 83 82 81 83 81 77 75 79 81 80 78 80 80 78 80 80 78 78 74 78 76 80 74 74 76 79 81 80 79 80 81 77 79 79 77 74 83 82 84 81 80 82 82 82 82 83 82 82 81 83 83 83 83 84 86 85 84 84 84 79 72
82 82 81 84 84 82 83 82 82 82 81 80 80 79 79 79 76 75 81 76 75 78 79 79 76 74 78 81 79 77 79 82 81 82 77 75 78 82 82 83 82 81 82 81 82 82 83 82 83 84 82 83 84 84 84 86 85 84 84 83 79 71
82 81 81 84 82 83 83 81 79 78 80 79 79 80 81 78 77 72 75 73 72 76 78 78 79 79 81 80 78 79 79 81 82 83 83 83 82 82 82 82 82 82 82 82 82 81 83 85 83 83 83 82 83 83 83 86 85 84 85 83 83 73
82 80 81 81 81 84 84 81 79 79 80 77 79 80 80 78 74 71 70 71 72 75 77 79 79 80 81 80 78 78 79 77 78 80 80 80 82 80 80 82 82 82 81 81 81 80 83 85 83 83 83 83 83 85 83 83 84 84 84 85 84 79
80 80 80 80 80 80 81 81 80 79 80 79 80 79 78 79 79 72 71 73 75 77 78 79 80 82 81 78 77 77 77 76 75 76 76 77 79 80 80 81 81 81 83 81 81 80 82 83 85 84 85 84 83 84 83 83 84 85 86 84 83 81
82 79 81 83 81 81 80 79 80 80 80 80 80 77 76 77 77 75 70 73 73 76 76 77 78 77 78 77 77 76 77 77 76 76 75 73 73 75 78 79 80 81 82 83 81 81 80 82 83 85 85 86 83 83 83 83 85 87 87 85 85 84
80 78 79 83 81 82 81 82 81 82 81 80 78 78 79 78 75 73 74 72 74 75 76 76 75 75 76 76 76 76 77 76 76 76 75 74 73 71 75 78 79 78 78 80 82 81 80 81 81 85 87 86 85 83 84 84 85 86 86 86 86 84
80 78 79 80 81 81 81 83 82 81 82 79 80 80 79 76 76 74 73 73 73 74 75 76 74 74 75 75 74 74 75 75 75 75 75 74 74 73 72 74 75 77 75 77 78 79 82 80 80 82 83 86 85 85 86 86 84 85 86 86 85 85
79 79 78 80 79 82 81 81 82 81 81 80 80 80 80 77 77 74 73 73 73 74 75 78 78 75 75 75 74 74 75 75 76 75 74 73 73 73 74 74 75 75 75 75 75 76 78 79 80 81 80 83 82 82 84 88 86 85 85 86 87 86
77 78 77 78 77 79 79 81 81 80 79 79 79 79 80 79 78 76 77 76 75 75 77 76 77 75 74 75 74 74 75 77 76 75 75 74 73 72 73 73 75 74 74 74 76 78 79 79 78 79 79 79 82 83 81 83 85 85 87 85 85 86
76 76 76 76 77 77 77 78 79 78 78 78 79 80 79 79 81 81 80 78 78 77 76 76 76 76 73 74 75 74 75 76 76 76 75 74 73 73 72 73 74 75 73 74 75 77 79 78 77 77 77 78 79 79 81 82 83 86 88 87 87 85
75 76 76 76 77 77 77 77 78 78 77 78 79 79 80 79 80 80 80 80 78 78 78 77 77 77 75 75 75 75 75 74 75 75 75 75 74 73 72 72 72 75 75 75 77 77 75 75 76 75 76 77 79 78 79 80 82 83 87 85 85 87
76 77 77 76 76 76 78 78 78 78 78 79 78 79 80 80 80 80 80 79 78 77 77 77 77 77 76 76 76 75 75 75 76 75 74 74 74 74 73 73 71 73 75 75 76 76 74 74 75 78 77 77 76 77 79 79 80 81 82 84 83 84
76 76 75 76 76 77 76 78 78 77 77 78 78 79 79 80 80 79 79 78 78 78 78 78 77 77 77 77 77 76 76 76 76 75 74 74 74 73 72 71 71 71 72 74 74 75 74 74 76 77 79 78 78 76 77 79 79 79 80 82 84 85
76 76 76 76 77 78 79 78 77 78 77 78 78 78 78 79 79 79 78 79 78 78 79 78 78 78 77 77 78 78 76 76 76 75 74 74 72 73 72 71 71 71 71 71 72 74 74 72 72 72 69 68 73 76 77 77 79 80 79 80 82 84
75 76 77 77 78 78 77 77 77 77 75 77 77 77 77 77 78 78 78 79 78 78 77 77 78 77 76 76 77 77 77 76 76 76 74 73 74 75 74 73 72 72 71 70 71 72 72 72 68 67 71 70 71 74 77 76 78 80 80 81 83 83
75 76 77 77 78 77 78 78 77 77 77 78 78 77 76 76 76 76 76 76 76 77 76 76 77 77 76 76 75 76 76 75 76 75 74 74 73 72 73 74 73 70 71 70 66 68 70 70 66 64 62 64 67 72 72 72 75 77 79 81 81 81
76 76 76 77 77 77 77 77 78 77 78 77 78 78 78 77 77 77 75 76 76 76 76 77 77 76 76 76 76 76 76 76 75 75 74 72 72 71 73 72 72 72 71 71 69 69 67 67 64 67 66 64 63 67 67 64 67 73 79 79 81 82
75 76 76 76 77 77 76 76 76 76 76 77 76 75 75 75 75 75 74 75 76 75 76 77 78 79 77 76 75 75 76 76 75 75 75 73 72 72 72 72 73 72 70 65 65 66 68 68 66 65 59 63 65 65 62 62 62 64 70 80 79 81
76 75 76 76 75 75 74 74 74 74 75 73 74 74 74 74 74 74 74 74 74 75 76 76 77 77 77 75 76 76 75 75 75 75 76 74 73 74 76 75 72 72 70 66 67 66 66 67 66 68 63 62 62 61 60 60 62 63 66 70 78 81
76 76 76 75 75 75 75 74 72 72 71 71 71 71 71 71 72 73 74 73 75 76 76 75 76 76 77 76 74 75 75 75 75 75 75 75 75 74 73 74 76 74 72 71 70 69 67 65 64 64 65 64 64 60 60 61 61 57 64 69 70 74
76 76 76 75 75 75 74 75 73 74 74 73 72 73 74 74 74 74 74 73 74 74 75 74 75 75 75 75 74 74 74 74 74 73 74 73 73 72 73 73 74 74 75 74 72 69 68 68 68 69 68 65 65 65 65 61 58 60 59 63 66 67
76 76 76 75 75 76 75 75 74 74 74 74 74 72 73 73 74 74 73 73 73 73 75 75 74 75 75 75 74 74 74 73 74 75 75 74 73 73 73 73 72 72 72 72 72 72 71 72 69 69 72 69 68 67 65 64 63 60 59 58 60 65
76 76 75 75 75 75 76 75 75 75 74 76 75 74 75 75 74 74 72 73 73 74 74 74 75 74 75 75 74 74 73 73 73 74 76 75 73 73 71 70 70 70 70 70 71 71 71 70 71 70 70 70 71 70 69 66 65 64 59 58 59 60
75 76 75 74 74 75 75 75 74 74 73 74 75 75 76 74 73 73 72 72 72 73 73 73 73 74 74 75 74 74 73 72 72 73 73 73 71 70 70 70 69 69 69 68 69 69 69 70 70 70 70 70 69 70 70 70 68 67 66 64 59 58
75 76 75 74 74 74 75 75 75 74 74 73 73 73 73 72 73 72 72 72 73 73 74 73 73 73 73 74 73 74 73 73 72 72 73 73 72 72 70 70 69 69 69 68 69 68 68 68 70 69 69 70 70 69 67 66 67 68 66 64 64 64
74 75 75 74 74 74 74 74 75 75 74 74 73 72 72 71 72 71 72 72 73 73 73 73 72 73 72 73 73 72 72 72 72 72 72 72 72 73 72 72 71 70 69 69 69 68 68 67 67 68 67 69 69 69 69 68 68 67 65 65 65 64
73 74 74 74 73 74 74 74 74 74 74 75 74 74 73 73 73 73 73 73 73 72 73 72 72 72 72 72 73 71 72 72 72 72 72 72 72 72 72 72 70 69 69 69 69 68 67 66 67 67 68 68 70 70 69 69 68 67 67 66 66 64
74 74 74 74 74 73 73 74 75 75 75 75 74 74 74 74 74 75 75 73 73 74 73 72 72 72 72 73 73 73 72 72 72 72 71 71 71 72 72 73 71 69 68 69 69 67 67 66 67 67 68 69 68 69 68 68 68 68 66 65 65 65
74 74 74 73 73 73 74 74 74 75 75 76 75 75 75 76 75 75 75 74 74 75 74 74 74 74 73 73 73 72 72 71 71 71 71 70 71 71 71 72 71 69 69 69 68 68 67 66 66 66 65 67 68 69 68 70 69 68 69 67 66 65
74 74 74 73 73 73 74 74 74 73 74 75 76 76 76 76 76 75 75 75 74 74 75 75 75 74 73 73 72 72 72 71 71 71 71 71 71 72 70 70 70 69 68 70 67 67 67 66 65 65 65 66 68 68 68 69 69 68 69 67 66 66
73 74 74 73 73 74 74 73 73 73 73 73 73 74 74 74 74 75 75 75 75 75 75 75 74 74 73 73 73 72 72 71 71 71 71 71 71 71 70 70 70 68 68 69 69 68 68 67 66 67 66 65 67 67 67 68 68 68 68 67 67 67

ECMWFFLT2_sfc_temp_033.txt.gz
Temp
79 79 80 80 79 79 77 75 76 75 75 75 75 76 75 75 75 75 75 71 73 77 78 77 75 79 75 78 74 72 74 75 75 75 75 75 75 74 74 74 73 73 73 73 72 72 72 72 72 72 73 72 73 76 82 86 86 88 88 85 84 79
80 79 80 80 81 77 78 77 79 78 79 77 75 76 76 76 77 78 75 72 75 77 74 77 76 75 78 76 76 73 73 75 75 75 74 75 75 74 74 74 73 73 72 72 71 78 76 73 71 73 73 73 76 80 84 84 85 88 88 87 81 76
80 80 80 80 80 78 78 77 77 79 80 77 78 79 77 78 81 80 78 80 75 75 75 76 77 77 78 76 76 73 73 73 74 75 74 74 74 74 74 73 73 72 72 71 76 80 83 82 79 71 73 77 81 83 83 83 84 85 88 87 80 74
80 80 78 79 79 77 75 77 80 80 80 79 79 79 81 79 76 75 79 76 72 74 76 74 76 76 76 77 76 71 72 73 73 74 74 75 74 74 73 73 73 72 72 77 80 82 84 86 83 80 81 83 84 84 83 83 85 86 87 88 81 73
80 77 75 75 76 77 77 77 80 81 80 79 79 75 79 78 77 73 75 72 74 72 73 72 74 74 76 78 78 78 77 78 78 78 74 78 76 79 76 80 77 75 79 80 82 83 83 83 85 84 84 84 84 84 83 84 85 87 86 81 77 72
78 79 79 79 81 77 79 81 79 79 79 77 76 76 75 76 73 71 70 74 74 72 71 71 72 73 74 75 78 78 78 77 78 79 78 78 77 79 78 81 79 78 80 83 83 84 83 82 84 84 85 84 84 84 83 85 85 85 87 81 76 72
75 74 76 80 80 80 78 79 79 78 77 75 74 74 74 72 69 70 73 74 73 73 72 71 71 73 75 76 76 77 76 77 75 77 77 79 80 75 79 80 81 78 80 82 84 85 83 83 83 86 84 86 85 85 84 85 84 84 85 83 76 72
79 72 73 75 77 80 78 76 76 75 74 72 72 73 72 71 74 73 75 74 76 76 73 72 72 74 77 77 75 80 80 78 75 77 79 79 80 79 78 78 78 82 82 84 84 84 85 85 83 83 86 84 85 85 84 85 84 83 84 83 78 73
85 83 80 69 74 80 77 74 73 70 70 72 71 72 71 70 69 72 74 76 74 72 74 74 75 75 74 70 70 71 73 77 73 73 75 76 77 75 73 73 75 79 83 83 84 83 84 85 83 82 85 85 84 85 84 84 84 83 84 85 81 76
83 83 84 82 71 74 74 71 74 70 72 71 72 70 71 68 70 73 76 76 77 77 77 77 75 74 73 71 71 71 73 73 76 71 72 74 75 73 70 70 72 78 81 83 83 83 84 84 87 84 85 85 84 84 85 85 84 84 85 84 83 77
85 81 83 83 82 79 79 77 76 76 72 73 71 77 74 73 73 74 76 76 76 75 76 77 74 71 71 69 74 75 77 79 73 76 77 75 73 76 74 72 72 76 81 82 83 84 83 83 85 87 86 87 86 84 85 84 86 86 86 83 84 78
84 82 81 85 83 83 82 82 81 80 80 76 76 74 75 74 72 76 78 78 73 71 73 78 74 74 73 73 74 74 77 76 70 78 78 78 77 77 77 78 78 78 79 77 80 82 83 82 83 86 88 88 88 86 85 85 86 87 86 85 84 81
83 81 83 83 84 84 84 86 85 84 83 81 80 81 79 80 77 78 78 78 77 79 79 77 76 77 79 79 72 75 77 78 78 77 77 77 77 76 76 76 77 77 77 78 79 80 83 82 81 83 86 88 86 86 86 87 85 86 86 86 85 85
83 83 82 83 82 85 84 84 84 84 84 83 84 84 80 80 79 79 79 78 78 79 78 78 74 74 77 78 78 77 76 76 77 76 76 75 74 75 75 76 77 77 76 76 78 79 78 77 81 84 83 86 85 84 85 86 86 86 86 85 86 84
81 81 81 81 81 82 82 83 85 83 82 81 82 81 81 79 80 80 80 79 78 78 79 77 75 72 73 74 78 76 73 72 72 74 70 74 72 74 72 72 74 75 76 76 78 79 79 78 78 81 83 82 84 85 84 86 86 85 86 84 84 85
80 79 80 79 80 80 80 81 81 80 81 81 82 82 81 81 81 81 80 79 79 79 79 79 78 76 73 71 76 76 76 73 70 70 68 74 73 70 69 69 72 73 72 76 77 77 77 77 77 78 80 81 81 82 83 84 84 87 88 86 85 85
79 79 79 79 80 80 79 80 80 80 81 81 82 82 84 83 83 82 82 80 79 79 80 78 78 79 77 77 77 71 70 72 72 70 69 71 69 68 68 67 68 70 72 74 76 79 77 76 77 78 79 76 76 79 80 81 83 83 86 84 86 87
79 80 79 79 79 79 80 80 81 81 80 81 81 82 82 83 82 82 82 80 79 79 78 79 79 78 77 79 78 76 75 75 74 71 69 68 69 70 68 68 66 67 69 70 75 75 78 78 78 79 75 74 75 76 78 79 81 81 83 84 82 85
79 79 78 79 79 79 79 80 80 80 80 80 81 81 82 82 81 80 80 79 80 79 79 79 79 79 77 77 77 78 77 76 76 70 67 68 69 70 70 67 65 66 67 69 68 71 75 77 78 78 78 71 71 71 71 75 76 79 79 81 82 84
79 79 79 78 79 80 80 79 79 79 80 80 81 80 81 82 81 81 80 80 80 79 81 79 80 80 78 79 79 78 78 77 77 71 68 66 68 69 67 67 66 67 67 67 69 69 70 73 72 71 72 69 67 70 71 70 73 74 74 79 79 81
78 79 79 79 80 80 79 79 79 79 77 78 79 78 78 79 80 79 80 80 80 80 79 78 79 79 78 77 78 79 78 78 78 78 75 70 68 70 67 67 68 68 67 66 66 69 67 67 68 67 66 69 70 72 71 71 71 73 73 73 77 80
78 78 79 80 80 80 80 81 79 79 79 80 80 79 78 77 77 77 78 77 78 79 78 78 78 78 77 78 77 78 77 77 77 78 76 76 75 74 69 67 68 67 68 66 66 67 66 66 62 63 63 63 65 67 68 67 67 69 73 76 79 76
78 78 79 80 80 79 80 80 80 79 81 80 80 79 79 78 78 78 76 77 77 77 78 79 78 78 78 78 78 78 78 77 77 77 75 75 74 72 72 69 69 67 65 65 65 66 66 67 63 65 63 63 62 62 64 65 67 70 72 76 75 75
78 79 79 79 80 79 79 79 79 79 79 80 77 77 77 78 78 77 77 77 77 77 78 79 80 80 80 78 77 78 78 78 77 77 76 75 75 74 73 71 67 67 65 63 65 66 68 67 65 66 59 60 61 62 60 62 63 67 70 72 73 72
78 78 79 78 78 78 77 77 77 77 78 76 77 77 76 76 76 76 76 76 76 77 78 78 78 79 80 78 78 78 77 76 76 76 77 77 76 75 76 76 75 67 67 69 68 67 67 67 66 66 63 60 59 58 60 61 65 65 67 68 70 71
79 79 78 78 77 77 76 76 74 74 72 73 73 73 73 73 74 75 75 75 77 78 78 77 78 78 78 77 76 77 77 77 77 76 76 77 77 76 75 75 77 75 73 72 70 65 66 66 66 65 65 66 62 59 60 61 62 58 67 67 68 69
78 78 78 77 77 77 76 76 75 75 75 74 73 74 76 76 76 76 76 75 76 76 77 76 76 77 77 77 76 76 75 75 76 75 75 74 74 74 75 74 75 75 75 75 73 69 68 65 66 66 65 64 63 64 65 62 59 62 60 62 64 66
79 78 78 77 77 77 76 76 75 75 76 76 75 74 75 75 76 76 75 75 75 75 77 77 76 77 77 76 76 75 75 75 76 77 78 76 75 75 74 74 73 74 74 73 72 71 71 71 68 67 69 65 64 65 65 64 61 61 59 58 59 64
79 78 77 77 76 77 77 76 76 76 75 77 76 75 77 77 76 75 74 75 75 76 76 76 77 76 76 76 76 75 75 75 75 76 78 77 75 75 72 71 71 71 71 71 72 71 71 70 70 70 70 71 71 69 66 65 64 63 59 57 60 61
78 78 77 77 77 77 77 77 76 76 75 75 76 76 77 75 75 74 73 74 74 75 75 75 75 76 76 77 76 76 75 74 74 75 75 74 74 72 72 71 71 71 71 71 71 71 70 70 71 70 71 70 70 71 72 68 66 67 64 62 61 62
78 79 77 76 77 76 77 77 76 76 76 75 75 75 74 73 74 74 73 73 74 75 75 75 75 74 75 75 75 75 74 74 74 74 75 75 74 74 73 72 72 72 71 70 70 70 70 70 71 70 70 70 70 70 68 67 67 68 67 65 65 66
77 78 77 77 76 76 77 76 77 76 76 76 75 75 73 73 73 73 73 73 75 75 74 74 74 74 74 74 74 74 74 74 74 74 74 75 75 75 74 74 73 72 71 71 71 71 70 69 69 70 69 69 69 71 70 70 69 69 67 66 65 65
76 77 77 77 76 76 76 76 77 76 76 76 75 75 75 74 74 74 74 74 74 74 74 73 74 73 73 73 74 73 73 74 73 73 74 74 74 74 74 74 72 72 71 71 70 69 69 67 68 68 69 70 70 72 71 71 70 69 68 67 67 65
77 77 77 76 76 76 76 76 77 77 76 76 75 75 75 75 75 76 76 75 75 75 75 74 74 73 74 74 74 74 74 74 74 74 73 73 73 74 74 76 73 72 71 71 71 70 69 69 68 68 69 70 70 70 69 70 70 70 69 67 66 65
77 77 77 76 76 75 76 76 77 77 77 77 76 76 77 77 76 76 76 75 75 76 76 75 75 75 75 74 74 74 74 73 73 73 73 72 73 73 73 75 74 71 71 71 71 70 69 68 68 68 68 69 70 70 69 70 71 69 71 69 67 65
77 77 77 76 76 76 76 76 76 76 76 77 77 77 77 78 77 77 76 76 75 76 77 76 76 75 74 75 74 73 74 73 73 73 73 73 73 74 72 73 72 71 70 72 69 69 69 69 67 67 67 68 70 70 69 69 70 70 70 69 68 68
78 77 77 76 76 76 76 76 76 76 76 76 76 76 76 76 77 76 76 76 76 76 77 76 76 76 74 75 74 74 73 73 73 73 73 73 73 73 72 72 72 71 70 71 71 70 70 69 69 69 68 68 69 70 69 69 69 68 68 69 69 69

ECMWFFLT2_sfc_temp_036.txt.gz
Temp
79 79 79 78 77 76 75 75 75 75 75 76 76 75 74 73 74 74 74 74 73 75 75 74 74 76 75 75 73 72 75 75 75 76 75 75 75 74 74 74 74 73 73 73 73 73 73 73 73 73 74 73 73 71 72 75 78 79 79 76 75 74
75 77 76 76 77 77 75 76 76 76 76 75 74 72 72 71 72 72 74 73 74 75 75 75 75 77 75 75 74 73 74 75 75 75 75 75 75 74 74 74 73 73 73 73 72 71 72 72 72 73 73 73 71 72 73 76 77 79 78 75 74 73
77 77 76 76 75 77 76 77 77 77 76 76 76 74 70 72 70 71 72 74 73 73 75 74 75 75 76 75 74 73 74 75 75 75 74 74 75 74 74 73 73 73 72 72 71 71 73 73 71 72 73 72 71 73 75 76 77 76 78 76 73 74
78 76 74 75 76 75 75 76 74 74 72 74 74 72 70 70 70 71 72 71 71 73 74 74 75 74 74 74 73 72 73 74 74 74 74 74 74 74 74 74 73 72 71 73 72 73 76 76 73 71 70 70 73 75 77 76 76 78 77 77 74 73
77 75 76 75 76 75 74 75 73 72 72 71 72 69 69 69 70 71 71 70 71 72 73 72 73 73 70 74 73 73 73 73 73 73 73 74 73 75 73 74 73 72 72 73 74 74 76 76 74 74 72 73 75 77 77 76 76 77 76 75 73 73
77 76 75 75 75 75 75 74 73 72 69 70 69 68 69 69 70 71 70 72 73 71 72 72 72 73 71 70 70 72 72 72 73 73 73 73 73 74 73 75 74 73 73 75 75 76 77 76 76 76 76 75 77 77 77 76 77 76 74 73 72 73
75 75 75 75 73 73 72 73 71 71 70 68 69 69 70 70 71 72 73 73 72 72 71 72 72 73 73 70 70 72 70 71 73 73 73 74 74 73 72 74 72 72 73 75 78 78 78 77 76 79 77 77 76 77 76 78 77 76 73 73 72 73
77 75 73 73 72 71 73 73 73 73 72 70 68 68 72 71 72 72 74 73 73 73 72 72 72 72 73 72 73 72 71 73 73 73 72 72 71 70 71 72 71 74 75 75 76 79 79 80 77 76 77 77 77 76 76 77 77 77 74 73 72 72
75 74 72 71 70 71 72 73 73 73 72 74 72 73 73 72 72 71 70 70 73 71 72 72 72 72 70 71 71 70 70 70 71 72 73 73 73 69 70 72 72 71 73 74 74 75 78 79 77 76 76 76 77 78 77 77 77 77 76 73 73 72
73 74 72 72 71 71 70 72 74 73 73 73 73 72 72 71 71 72 68 69 70 71 70 69 70 72 72 71 70 70 70 70 71 70 71 71 71 70 69 69 69 71 74 75 76 77 76 77 80 76 77 77 78 77 77 76 77 77 78 74 73 72
74 73 71 71 71 72 72 73 73 73 73 73 72 71 70 71 71 72 72 72 73 72 71 71 71 71 71 70 69 70 69 71 68 67 71 70 70 71 70 69 68 71 73 72 73 76 76 76 79 80 79 80 79 76 76 76 77 79 79 77 74 72
74 72 71 75 74 72 72 74 74 73 72 73 71 70 69 70 71 72 73 72 73 72 70 71 71 72 72 71 70 70 69 68 67 68 69 69 68 67 66 68 68 70 73 70 70 72 74 75 77 80 83 81 80 78 77 76 77 78 79 77 74 74
74 72 71 73 74 75 74 76 75 74 73 74 72 71 69 70 72 72 72 73 73 72 70 70 70 71 72 72 70 69 68 68 68 68 67 68 67 66 67 67 67 67 70 73 73 72 77 72 73 76 78 81 78 81 81 79 77 77 78 79 75 75
79 80 78 78 77 79 79 77 77 75 75 74 73 72 70 70 72 73 73 73 72 72 71 71 72 72 71 70 69 67 67 68 68 68 68 67 67 66 66 66 68 70 72 72 71 72 72 69 70 74 76 79 78 77 79 80 76 78 77 78 78 75
77 77 78 77 77 77 78 79 78 77 77 77 75 72 71 69 71 72 73 72 71 71 72 71 72 72 72 71 69 67 68 68 67 68 66 66 66 66 67 66 68 68 69 70 72 73 73 72 72 74 74 74 78 80 78 77 77 77 78 77 78 77
76 76 76 75 75 75 76 76 77 78 76 78 76 76 72 70 72 73 72 72 70 71 71 72 72 73 70 70 70 69 68 68 68 66 65 67 67 67 66 65 67 68 66 69 71 72 72 73 73 72 73 71 72 74 74 76 76 78 81 79 79 78
75 75 75 76 76 75 76 76 76 77 77 77 77 76 76 76 76 76 75 75 75 74 75 71 73 72 72 71 70 67 66 67 68 68 67 67 67 67 66 67 67 68 68 68 70 71 71 71 72 69 68 66 67 69 70 71 71 72 75 78 78 79
76 76 75 75 75 75 76 76 75 76 77 77 76 77 77 77 76 76 76 75 75 74 74 76 75 72 71 69 68 66 67 67 67 68 67 66 67 68 67 66 66 67 67 67 67 66 65 66 66 65 66 66 67 67 68 69 69 70 71 71 72 75
75 75 74 75 75 75 75 74 74 75 75 75 75 75 75 76 75 76 75 75 75 75 75 76 75 76 73 73 72 69 68 67 68 66 66 65 67 67 67 67 66 65 66 66 66 66 66 65 65 66 66 66 66 67 67 68 69 69 69 70 71 73
74 75 74 74 75 75 75 73 73 74 75 74 75 75 75 75 76 75 76 75 75 74 76 74 75 75 73 72 72 72 68 68 67 66 66 66 66 67 66 66 66 66 66 66 67 67 67 65 64 64 63 65 66 66 68 66 68 70 69 68 70 70
74 74 73 74 74 74 73 73 73 73 71 73 73 73 74 73 74 73 74 76 75 74 74 74 74 75 72 73 71 72 72 71 68 67 67 66 67 67 67 66 66 66 66 64 64 66 66 65 63 62 64 64 64 66 66 67 67 66 68 69 69 71
73 74 74 75 75 74 75 74 73 73 73 74 74 73 72 72 72 74 73 73 73 74 73 73 73 73 72 73 72 72 72 71 72 71 70 70 68 67 67 66 66 64 65 65 64 65 65 65 61 60 59 60 63 64 66 66 67 69 68 67 69 70
73 74 74 75 74 73 73 74 75 74 74 73 74 73 74 74 73 73 72 73 73 73 74 73 74 73 73 73 72 71 72 72 72 72 70 69 67 66 66 65 66 64 63 65 64 66 65 65 61 62 61 60 59 59 61 63 65 66 68 68 69 70
73 74 74 75 74 74 74 74 74 73 72 73 71 72 72 73 72 73 72 73 72 73 74 73 75 77 74 73 71 71 71 70 71 71 71 69 68 67 65 64 64 63 63 61 63 63 66 65 64 62 57 58 59 58 56 58 60 64 67 68 68 69
73 73 73 74 73 73 73 72 72 72 72 71 71 71 70 70 71 71 71 70 71 73 73 73 74 74 74 72 71 70 71 71 70 70 69 70 69 70 70 67 66 65 64 63 61 63 63 65 64 64 61 58 57 56 57 59 62 61 64 64 66 68
74 73 73 73 73 72 71 70 69 68 66 67 66 67 67 67 69 69 69 72 73 73 73 72 72 73 73 72 70 70 69 70 68 67 68 68 68 68 68 69 70 68 66 66 64 63 61 64 64 64 64 62 61 57 57 59 59 56 63 64 65 67
74 73 73 73 73 72 71 70 70 70 69 68 67 69 69 70 68 69 71 69 71 72 73 71 71 71 71 71 70 70 69 70 70 70 69 68 66 67 68 68 68 68 68 67 67 63 62 62 63 64 64 63 62 62 62 59 57 58 57 61 63 63
74 73 73 73 72 72 70 70 70 70 70 69 69 68 70 69 70 70 69 70 70 70 72 72 71 72 71 71 70 69 69 68 69 71 70 68 66 67 67 68 67 67 66 66 66 64 64 65 64 62 64 62 62 62 62 61 61 58 57 56 58 62
73 73 72 72 72 72 71 70 71 71 69 71 70 70 70 70 69 70 69 70 70 70 70 70 71 70 70 71 69 69 68 68 67 68 70 69 68 69 67 65 65 65 64 64 64 64 63 62 64 63 63 62 62 61 62 62 61 61 58 55 56 58
73 73 73 72 72 72 72 71 70 70 70 69 69 70 70 68 68 69 68 68 69 69 68 69 69 70 69 71 70 69 69 68 68 69 69 68 68 66 66 65 65 65 65 64 64 64 62 63 63 63 64 63 63 63 63 61 61 61 61 60 57 58
73 73 72 72 72 71 71 71 71 71 70 69 69 69 67 67 68 68 67 68 69 69 69 68 68 69 69 70 68 69 69 69 68 68 69 69 67 68 67 67 66 66 65 64 64 64 64 64 64 62 63 62 62 63 61 61 60 61 61 59 59 60
73 72 72 72 71 71 71 71 71 71 70 70 69 69 67 67 67 67 67 67 68 68 68 68 68 67 68 69 68 68 69 68 68 68 67 68 68 69 68 67 66 65 65 65 65 64 63 62 63 63 62 62 62 63 62 62 63 62 60 59 59 58
72 72 72 72 71 71 71 71 71 71 71 70 70 70 69 68 68 68 68 68 68 67 67 67 67 67 67 68 68 67 66 67 66 67 67 67 68 68 67 66 66 65 64 64 63 63 61 61 62 61 62 63 63 64 63 63 63 63 63 63 61 58
72 72 72 71 71 71 71 71 72 71 71 71 70 70 69 69 69 69 69 68 68 68 67 67 67 66 67 69 68 68 68 67 67 67 67 67 66 67 69 68 66 65 64 64 64 63 62 62 61 62 62 62 62 62 62 64 63 63 62 61 58 57
72 72 72 71 71 71 71 71 72 72 71 71 70 70 70 70 69 69 69 69 69 69 68 68 68 68 69 68 68 68 68 67 68 67 67 67 68 68 66 68 66 65 64 64 64 63 62 62 62 62 61 62 63 61 61 63 62 62 64 61 60 59
73 72 72 71 71 71 71 71 72 71 71 71 71 71 71 70 70 70 70 69 69 70 70 69 69 69 68 68 68 68 68 67 68 67 67 67 67 66 67 65 65 65 64 68 63 63 63 62 62 61 62 62 62 61 62 63 63 61 62 62 62 60
67 72 73 72 71 72 71 71 71 72 71 71 70 70 69 70 70 70 71 70 69 70 71 70 70 69 68 68 68 67 67 67 67 67 67 67 68 67 66 65 65 65 64 65 65 64 64 62 63 63 62 63 62 60 61 62 62 62 62 62 62 61

ECMWFFLT2_sfc_temp_039.txt.gz
Temp
73 73 73 73 73 73 75 75 75 75 74 74 74 74 74 75 74 75 74 74 73 71 70 70 71 72 74 72 72 73 74 75 75 75 75 75 75 75 75 74 74 73 73 73 72 72 72 73 73 73 73 73 74 69 67 68 71 73 71 71 71 71
73 74 73 73 73 73 74 74 73 72 71 71 71 72 71 70 75 69 74 71 69 71 70 70 71 75 71 72 73 73 74 75 75 75 75 75 75 74 74 74 73 73 73 73 72 67 68 71 72 73 73 73 70 67 67 68 71 73 72 69 70 72
74 74 74 73 73 73 73 72 72 71 70 71 71 71 68 70 67 68 68 70 70 70 70 70 71 72 72 74 72 73 74 74 74 75 74 74 74 74 74 73 73 73 72 72 68 66 66 66 66 72 72 70 66 67 68 68 70 71 72 70 69 74
74 73 72 72 72 72 71 71 71 70 68 68 68 68 67 68 67 67 68 68 68 71 70 68 73 75 73 70 69 72 73 74 74 75 74 73 74 73 74 73 73 72 71 70 65 65 67 67 66 66 66 65 65 67 68 69 70 71 71 73 72 74
73 73 73 72 72 71 70 70 69 69 68 67 67 66 66 65 66 67 67 68 68 69 69 67 67 68 66 67 67 69 70 70 70 69 73 68 68 72 70 70 69 69 66 66 66 66 67 68 69 68 67 66 67 68 69 70 71 71 71 71 71 73
73 73 72 71 71 72 71 69 68 68 67 66 65 65 66 65 66 67 67 68 69 68 68 68 67 66 66 67 67 68 68 69 69 69 70 68 68 68 68 69 68 68 67 68 68 69 69 68 69 67 68 67 67 69 70 70 71 71 70 69 71 74
72 72 71 72 71 71 69 69 68 67 66 66 66 65 65 65 66 67 68 69 68 67 67 67 67 67 67 66 66 68 67 68 67 67 68 68 69 68 68 68 67 68 68 68 69 70 71 72 71 71 69 70 69 71 71 71 70 70 69 69 71 73
72 71 70 71 69 69 69 69 70 70 67 69 67 66 66 66 68 67 69 69 70 68 67 67 67 67 67 67 67 68 68 67 67 67 67 66 67 67 68 67 68 69 69 71 71 71 71 73 71 72 72 70 71 71 72 71 71 70 69 69 70 72
72 70 69 69 69 69 69 69 69 68 66 71 66 66 67 68 67 67 67 68 69 67 67 68 67 67 67 67 67 67 66 66 66 66 66 66 67 67 66 67 66 67 68 69 67 68 70 71 71 72 73 72 71 72 71 71 70 70 69 69 69 71
71 69 68 69 68 68 69 69 69 68 68 69 66 68 69 67 66 66 66 66 67 67 67 67 67 67 67 67 67 67 67 66 65 65 66 65 67 66 65 65 65 67 69 67 66 67 67 69 73 72 72 72 71 72 71 70 72 71 70 69 69 70
71 71 69 68 68 68 68 69 69 69 69 68 67 68 67 67 67 66 66 66 66 67 67 67 67 67 67 66 67 67 66 65 65 65 65 66 67 65 65 65 65 66 67 66 67 67 67 68 70 74 73 73 73 73 71 72 72 72 71 70 69 69
70 70 69 70 70 68 69 70 69 68 68 68 68 66 66 66 67 67 67 66 67 68 68 67 67 67 67 66 66 65 66 65 64 65 65 65 65 64 64 65 66 67 67 67 66 66 66 67 68 70 73 74 74 73 71 71 72 72 71 70 69 69
70 69 69 69 69 69 69 71 69 69 68 69 67 66 66 66 66 66 67 68 68 68 67 67 66 67 67 67 66 65 65 65 65 65 64 65 65 64 64 64 64 65 64 65 67 66 71 67 68 69 70 72 72 73 73 72 72 71 72 71 70 69
69 69 69 69 68 68 69 69 69 68 70 67 67 66 66 66 67 67 67 67 67 68 67 67 67 66 66 66 65 64 65 65 65 64 64 64 64 64 63 64 63 64 66 65 66 67 67 66 67 69 69 71 68 68 71 72 70 70 71 71 71 70
70 69 70 69 69 68 68 69 69 68 68 68 67 66 66 66 66 67 68 67 67 67 67 67 68 67 67 66 65 64 64 64 64 64 63 63 63 63 63 62 63 64 64 64 66 68 68 66 67 68 66 65 67 69 68 69 70 70 71 69 70 71
69 68 68 69 67 69 70 69 69 70 68 68 67 66 65 66 67 66 68 67 67 67 67 67 67 67 65 66 66 64 64 63 64 63 62 63 64 63 63 62 62 64 62 64 66 66 66 66 66 65 65 64 65 66 66 67 67 69 71 71 69 69
69 68 68 68 68 67 68 69 69 70 69 68 67 66 65 66 67 67 67 66 66 68 67 67 67 66 65 65 65 64 64 65 64 64 63 64 64 63 63 64 62 63 64 63 65 65 64 63 64 64 64 63 64 65 65 66 66 66 70 68 68 70
68 68 67 68 67 67 68 68 67 68 70 68 66 67 67 68 67 67 68 67 67 68 68 67 67 66 65 66 65 64 63 64 64 64 63 62 63 63 63 62 62 62 63 63 62 61 63 62 64 64 63 63 64 65 65 65 66 66 67 67 67 68
68 67 67 67 67 66 66 66 66 67 66 66 67 66 67 67 66 67 67 67 68 68 69 68 67 67 65 65 64 64 64 63 63 63 63 62 62 63 64 62 62 62 63 62 62 63 62 62 63 63 63 64 64 64 63 65 65 65 65 66 66 68
67 67 66 66 67 65 66 65 64 64 65 65 66 67 67 67 67 67 68 67 68 67 68 68 67 68 66 65 63 64 63 63 62 62 61 61 61 61 62 62 64 64 61 63 63 64 64 62 62 61 61 62 63 64 65 64 64 65 65 65 65 65
66 66 67 66 65 64 63 63 62 64 64 64 66 66 66 66 66 65 67 68 67 68 67 67 67 66 65 66 64 63 64 63 63 62 62 62 62 64 64 63 63 62 62 62 61 62 62 62 60 60 60 61 62 64 65 65 63 63 64 64 66 65
65 66 67 67 67 65 64 63 63 64 62 63 65 64 64 65 66 67 66 65 64 65 64 65 67 65 64 64 65 64 63 63 63 63 63 63 63 64 63 63 64 63 62 62 61 62 62 62 59 58 58 58 59 61 64 64 64 64 64 65 65 65
67 66 66 67 65 66 64 65 63 62 65 63 64 65 65 65 67 66 64 64 64 64 65 66 65 65 67 66 64 64 65 64 64 64 63 63 62 62 62 62 61 61 61 62 62 63 63 62 58 59 58 57 56 57 59 60 62 63 65 65 64 64
66 65 65 67 67 65 66 65 67 66 66 67 65 66 65 64 64 65 65 65 65 65 65 66 68 68 67 65 64 63 64 64 64 64 63 61 61 61 60 60 60 60 61 59 60 61 63 62 60 59 55 54 55 55 54 56 58 61 64 65 65 65
65 65 66 67 66 66 67 66 65 65 66 65 64 63 62 61 63 64 64 63 65 66 66 66 65 65 66 64 63 63 63 63 64 63 64 62 60 61 62 61 61 60 59 59 59 60 62 64 63 62 57 56 54 53 53 56 58 59 61 61 63 65
64 65 66 66 66 66 66 65 63 62 61 59 59 59 59 60 60 61 61 62 66 66 65 64 65 66 65 64 63 62 60 63 62 63 62 61 62 61 60 61 62 61 60 61 60 58 58 61 60 61 60 59 58 53 54 56 56 54 60 61 62 64
65 65 66 65 66 65 63 64 63 63 62 61 60 60 60 61 62 61 63 62 63 64 65 65 63 63 63 63 63 63 62 60 62 62 63 61 61 61 62 61 62 62 61 62 60 57 57 58 60 60 61 59 60 60 59 56 54 55 54 58 60 60
65 65 66 66 65 65 64 63 62 63 62 60 61 61 62 62 62 63 62 63 63 62 62 63 63 62 61 63 63 63 61 62 62 64 63 61 60 60 62 62 60 60 60 60 59 59 58 59 58 58 59 58 58 59 59 59 57 55 53 53 56 59
65 65 65 65 65 64 65 64 64 63 61 62 63 62 62 63 62 63 61 60 62 62 62 63 64 62 61 63 64 61 60 61 62 62 64 63 61 61 59 59 59 59 59 59 59 58 57 56 58 57 57 58 58 58 58 57 57 57 55 52 54 55
66 65 65 65 65 64 64 64 63 62 63 62 62 62 62 61 60 60 61 60 60 61 60 60 60 60 60 60 60 61 61 61 59 62 63 61 59 59 60 59 58 58 58 58 58 58 57 56 58 56 57 57 56 57 58 56 56 57 57 57 55 55
67 66 66 65 64 64 64 63 63 63 64 63 62 61 61 60 59 60 61 60 60 60 60 60 60 61 61 60 59 61 60 61 61 62 61 61 60 60 59 58 59 59 58 58 57 58 58 56 56 57 58 56 56 56 56 55 54 56 55 53 52 54
66 66 65 65 63 64 64 63 63 64 64 63 62 62 61 60 60 61 60 60 60 60 60 60 60 59 59 60 60 60 60 59 61 60 61 61 61 62 61 61 59 59 59 58 58 58 56 56 56 56 56 56 56 57 57 57 58 56 57 54 54 52
66 66 66 64 62 63 62 62 63 64 64 64 63 62 62 61 60 61 60 60 60 60 58 59 58 60 58 59 59 59 59 59 58 59 58 59 59 60 60 59 59 57 57 57 56 56 55 54 55 56 55 56 56 58 57 57 58 57 56 56 54 51
66 65 64 63 61 62 62 61 63 64 64 64 63 62 61 61 61 61 61 61 61 61 60 60 59 59 60 60 59 59 60 58 58 58 59 58 58 59 59 60 58 57 57 56 56 54 55 55 55 55 55 55 56 57 56 57 57 57 56 56 52 52
63 62 62 62 61 61 62 61 62 64 63 63 63 62 62 62 61 61 60 62 61 61 61 60 61 61 61 60 59 59 59 59 59 58 59 59 61 59 58 61 60 58 57 56 56 56 55 55 58 56 54 55 57 55 55 56 55 57 57 56 55 55
58 59 60 62 64 61 62 61 61 63 63 63 64 63 62 63 61 62 61 62 61 61 62 61 61 62 61 60 59 59 59 58 58 59 58 58 58 58 58 59 58 57 58 61 57 56 55 54 54 55 54 54 55 55 55 56 57 56 55 55 56 54
59 60 61 60 62 63 64 62 62 62 63 63 63 63 63 62 61 61 62 61 61 62 62 62 62 62 61 60 60 59 59 58 58 58 59 59 58 58 57 59 59 57 57 57 56 56 55 54 55 54 54 54 54 54 54 54 55 56 56 55 56 55

ECMWFFLT2_sfc_temp_042.txt.gz
Temp
72 72 72 72 72 73 74 75 75 75 75 74 74 74 75 75 74 74 74 74 72 70 69 70 72 71 74 72 72 73 74 75 75 75 75 75 75 75 75 74 73 73 73 72 72 72 72 72 72 72 72 72 73 65 65 66 69 69 68 68 68 68
71 72 72 72 73 73 73 74 72 72 72 73 73 74 72 71 74 69 73 71 69 70 69 69 70 74 71 72 72 73 74 74 74 74 74 74 74 74 74 73 73 73 72 72 72 66 66 69 70 71 72 73 67 64 65 66 68 68 68 68 68 70
72 72 72 72 72 73 72 71 70 69 71 73 73 71 68 70 66 68 68 69 69 68 68 68 69 72 71 73 72 73 73 74 74 74 74 74 74 73 73 73 72 72 71 72 67 64 62 62 62 69 70 66 64 64 65 66 68 68 68 68 68 73
72 72 71 70 71 70 70 69 68 68 67 67 67 67 67 67 66 66 67 67 67 69 67 67 75 76 74 69 70 72 72 73 74 74 74 73 73 73 73 73 72 72 70 69 63 62 63 63 62 64 63 63 64 63 65 65 67 67 67 70 69 73
72 71 71 71 71 69 69 69 67 67 66 66 65 65 65 65 66 66 66 66 66 68 67 66 66 67 66 67 66 67 68 68 69 69 72 67 69 71 70 68 68 69 66 65 63 62 63 64 65 65 65 65 64 64 65 65 68 67 68 69 69 73
72 71 71 70 69 71 70 67 67 67 66 65 65 65 65 65 65 65 65 66 67 66 66 66 65 65 65 66 66 66 67 67 66 67 69 67 67 67 67 67 67 67 66 65 64 64 64 65 65 64 65 65 65 64 65 64 68 68 68 67 70 73
70 70 70 71 70 69 68 67 67 66 66 65 65 65 64 64 65 65 66 67 66 65 65 65 65 65 65 65 66 66 65 65 65 64 66 66 66 67 67 66 66 66 65 65 65 65 65 66 65 67 67 66 65 65 65 65 67 67 67 67 70 73
70 70 69 70 69 68 67 67 67 69 67 67 66 65 65 65 66 66 67 67 68 65 66 65 65 65 65 65 65 65 65 65 65 65 65 65 65 65 66 66 66 66 66 66 66 66 66 67 65 66 67 66 66 65 65 66 67 67 67 67 69 72
71 70 69 69 69 68 68 67 68 67 65 70 65 65 65 66 66 66 67 67 68 65 64 66 65 66 65 65 65 64 64 64 64 64 65 64 64 64 64 65 65 66 64 65 64 64 66 66 65 66 66 67 67 66 66 66 66 67 66 67 68 71
69 69 69 69 68 67 67 67 67 66 66 69 64 65 66 65 66 66 65 66 67 66 65 65 65 65 66 65 65 65 64 64 64 64 64 64 64 64 63 64 64 65 66 65 64 65 66 65 66 66 66 67 68 67 66 67 67 67 67 67 67 69
69 70 68 68 68 68 68 67 67 66 67 67 65 66 66 66 65 65 65 65 65 66 65 65 65 64 65 65 65 65 64 64 64 64 64 64 64 63 63 63 63 64 64 64 65 65 65 65 66 67 68 69 69 67 66 67 68 68 67 67 67 68
69 69 68 68 69 68 68 68 68 67 67 66 67 66 66 66 67 65 65 65 65 66 65 64 64 64 65 65 65 65 64 64 63 63 64 64 63 63 62 64 64 65 64 64 65 65 65 64 65 66 68 67 67 67 66 66 68 68 68 67 67 67
69 69 68 68 68 68 68 69 67 67 67 68 67 66 65 65 66 66 66 65 65 66 65 65 63 64 65 64 64 64 64 63 63 64 63 64 63 63 62 63 63 63 63 63 64 65 67 64 64 65 66 67 66 67 67 68 67 67 66 67 66 67
68 68 68 67 67 67 67 67 67 66 68 66 65 65 66 64 66 65 66 66 66 66 66 65 64 64 64 64 64 64 63 63 63 63 62 63 63 62 62 62 62 62 64 63 63 64 64 64 63 65 63 65 64 65 65 67 66 67 66 66 66 65
68 67 68 67 67 67 66 67 66 66 66 65 65 64 64 64 65 65 66 65 66 66 66 65 65 65 64 64 63 63 64 64 65 63 62 62 63 62 61 61 62 62 61 61 62 64 63 63 63 63 63 63 65 66 65 65 66 67 67 66 66 66
67 66 66 67 66 66 67 66 66 67 65 64 64 64 63 64 65 65 66 66 66 66 66 65 66 65 63 63 63 63 63 64 64 63 62 63 63 63 62 61 61 62 61 62 63 62 62 62 63 63 62 62 62 64 63 63 66 66 67 67 66 66
66 66 66 66 65 66 66 65 65 67 65 64 63 63 63 63 64 65 65 65 65 67 66 65 65 65 64 64 64 63 63 64 64 62 62 63 63 64 63 62 61 63 62 61 62 62 61 61 62 62 62 62 62 62 63 63 64 65 67 65 65 66
66 66 65 65 65 66 66 66 65 65 66 64 63 63 63 64 63 63 64 64 64 66 65 65 65 64 64 64 63 63 63 63 63 63 62 62 64 64 63 62 61 61 62 60 61 60 61 61 63 62 61 62 62 62 62 63 63 65 64 65 64 64
66 65 65 65 65 65 64 63 63 64 63 62 62 62 63 62 63 63 63 63 64 65 66 64 64 64 63 64 62 62 62 62 62 62 61 61 61 63 64 63 62 61 62 61 61 61 61 60 61 61 61 61 62 62 62 62 63 63 63 64 66 66
65 65 64 64 65 64 64 63 62 61 62 61 62 62 62 62 63 63 64 63 63 63 65 65 64 63 63 64 62 62 62 62 62 61 60 60 60 61 62 63 63 63 60 61 61 61 61 60 59 60 60 60 61 62 63 62 62 62 62 63 63 63
64 64 65 64 63 63 61 60 60 61 61 60 62 62 63 62 63 62 62 63 63 63 63 64 64 63 62 64 61 61 61 62 61 61 60 60 60 60 61 62 62 61 61 61 61 61 62 60 57 57 58 59 60 62 63 63 62 61 62 61 61 63
62 63 64 64 64 62 59 61 61 61 61 60 62 62 61 62 62 62 61 61 61 61 61 62 62 61 60 61 61 60 59 61 62 60 60 60 60 62 61 60 63 61 62 61 59 60 60 59 56 56 56 56 57 59 61 61 62 63 62 62 62 63
63 62 62 64 62 63 61 60 61 59 62 58 60 61 61 61 62 63 61 60 60 59 60 61 61 62 62 61 60 59 59 59 60 61 60 59 59 59 59 60 60 59 58 59 59 60 62 60 56 56 55 56 53 54 56 57 59 62 63 63 62 63
63 62 62 62 63 60 61 60 62 62 61 62 62 61 60 60 61 62 62 62 62 62 62 61 61 63 62 61 59 59 59 59 60 61 60 59 58 58 58 58 58 58 58 58 59 61 61 61 59 57 55 54 54 53 51 53 56 60 62 63 63 63
63 62 61 62 61 62 63 62 62 62 62 61 61 59 59 58 59 62 62 61 60 60 62 61 61 62 63 59 58 58 59 60 59 59 60 59 57 58 58 58 58 58 56 57 57 59 60 62 61 59 57 55 52 51 52 53 56 57 60 59 61 63
60 60 61 61 63 64 63 62 61 61 58 56 56 56 56 58 58 59 59 59 60 61 61 60 60 61 61 61 59 58 58 60 60 59 59 58 58 57 57 58 59 59 58 57 57 57 58 59 59 60 59 57 55 52 53 55 54 52 58 59 60 61
61 60 62 62 64 64 62 62 62 61 59 59 57 56 56 57 57 57 58 59 58 58 59 60 59 59 59 59 58 59 59 59 59 58 58 58 58 58 58 58 58 58 58 59 57 55 57 58 60 59 59 57 58 58 56 55 53 53 52 56 58 58
61 62 62 62 63 64 63 60 60 59 60 58 58 57 57 57 57 58 58 57 58 58 58 58 59 59 59 61 60 59 58 58 59 59 60 58 57 57 59 59 58 57 57 57 57 57 57 58 57 58 59 57 57 58 57 57 55 55 52 53 54 56
62 62 61 62 62 62 63 61 61 60 58 58 59 59 58 58 57 57 56 56 58 57 57 57 57 57 57 60 61 57 57 57 58 58 60 59 57 57 56 56 56 57 56 55 56 54 54 54 53 56 58 57 57 57 56 56 56 56 53 49 51 52
61 61 61 61 62 61 61 61 60 59 59 57 59 58 58 57 56 56 56 56 56 56 56 56 56 56 57 59 58 58 57 57 56 59 59 57 56 57 56 56 55 55 55 55 54 54 54 53 54 53 54 56 56 55 55 55 55 54 54 53 53 53
61 61 61 61 62 61 60 61 61 60 60 59 59 59 57 56 55 55 57 55 55 56 56 56 57 56 57 57 57 58 57 56 57 59 58 57 56 56 55 55 56 55 55 55 54 54 54 54 54 54 54 53 53 54 54 53 53 53 52 51 49 51
61 61 61 62 61 60 60 60 61 61 61 61 60 60 58 57 57 57 55 55 55 55 55 56 55 56 56 56 57 56 57 56 57 56 56 56 56 57 56 56 56 55 54 53 54 55 53 53 54 53 53 53 54 54 53 53 53 53 54 52 51 50
61 61 61 61 61 60 60 60 61 62 61 61 60 60 59 58 57 57 56 55 55 55 55 56 55 57 56 55 56 57 57 57 56 56 55 55 55 55 55 55 55 54 54 54 53 53 52 51 52 53 52 52 53 54 53 53 54 54 52 52 51 48
62 62 62 61 62 61 59 60 61 62 61 61 59 59 58 59 57 57 57 57 57 56 56 56 56 56 57 55 55 56 56 55 55 54 55 55 54 55 55 56 54 54 53 51 52 52 52 51 51 50 51 53 53 53 52 53 52 54 53 52 50 49
60 61 62 62 62 61 59 59 61 61 61 61 60 58 58 59 58 57 56 57 56 56 55 56 57 58 55 55 55 55 54 54 55 54 54 55 57 54 54 56 55 53 53 52 53 54 53 53 54 52 51 51 53 53 53 54 52 53 54 53 52 52
58 57 58 60 61 61 60 59 60 60 61 61 61 60 59 58 57 58 58 58 57 56 57 56 56 56 55 56 56 55 55 54 54 54 54 54 54 54 54 54 53 53 54 56 54 53 52 53 52 50 50 50 53 51 51 52 53 51 51 53 53 50
58 58 59 59 60 63 61 60 60 60 61 61 61 61 61 59 59 59 59 58 58 58 57 58 58 57 56 55 56 55 55 55 54 54 54 54 54 53 54 55 54 53 53 53 53 53 52 53 51 51 51 51 51 51 50 50 51 52 52 51 52 51

ECMWFFLT2_sfc_temp_045.txt.gz
Temp
72 73 72 72 72 72 74 75 74 74 74 74 74 75 75 75 74 75 74 74 72 70 70 71 71 71 74 71 72 73 74 74 74 74 74 74 74 74 74 73 73 72 72 72 71 72 71 71 71 71 71 72 71 63 63 66 67 67 65 66 67 65
72 72 72 72 72 72 73 73 72 72 72 73 74 74 72 71 74 70 74 71 69 71 69 69 70 73 71 71 72 73 74 74 74 74 74 74 74 74 74 73 72 72 72 71 71 64 63 66 69 70 71 71 63 61 62 65 66 66 66 66 66 67
72 72 72 71 72 72 71 70 70 70 72 73 73 72 69 70 67 68 68 68 68 68 68 69 69 72 70 73 72 74 74 74 74 74 74 73 74 73 73 72 72 72 71 71 64 62 60 60 60 68 67 63 61 62 62 64 65 66 66 66 66 70
72 72 71 70 71 70 69 68 68 68 67 67 67 67 67 67 67 67 67 67 67 69 67 67 74 74 74 70 70 72 73 74 74 74 74 73 73 73 73 73 72 71 68 65 62 62 61 61 62 60 60 61 61 61 62 63 65 66 66 69 66 72
72 72 71 71 70 69 68 67 67 67 66 66 66 65 65 66 66 66 66 67 67 67 66 66 66 66 65 66 66 66 68 68 68 68 72 66 67 68 68 66 65 65 63 63 62 61 62 62 62 62 62 62 62 61 61 63 65 64 65 67 67 72
71 71 71 70 69 70 69 67 66 66 65 65 65 64 64 65 66 66 66 67 67 65 65 65 65 65 65 64 65 65 65 64 65 66 67 65 66 66 65 65 65 65 64 63 62 62 62 63 63 63 63 62 60 61 61 62 64 65 66 66 68 72
70 70 70 70 69 70 68 67 66 66 65 64 64 64 63 64 65 64 65 67 66 65 64 64 64 64 64 64 65 65 64 64 65 65 66 66 65 65 65 65 64 64 64 64 64 63 63 64 63 63 64 64 61 61 61 62 64 65 65 66 68 72
68 68 68 69 68 67 66 66 67 69 65 67 65 64 63 63 65 64 66 66 67 65 65 64 64 64 64 63 64 64 64 64 65 66 67 65 64 64 65 65 64 64 65 65 65 64 63 64 63 62 63 63 62 60 61 62 64 65 65 65 67 71
69 68 67 67 66 66 66 66 67 66 64 69 64 64 63 64 65 64 65 65 66 64 64 65 64 64 63 64 63 63 63 63 63 64 65 64 64 63 64 64 64 64 63 63 63 63 64 64 63 62 63 64 62 61 61 62 64 64 64 65 66 69
69 68 67 67 66 66 66 66 66 65 65 68 63 64 64 64 63 64 64 65 66 65 64 65 64 63 63 63 63 62 63 62 63 62 64 63 64 63 63 62 62 63 64 64 64 63 65 64 65 64 63 63 64 63 62 62 63 64 65 65 66 68
68 70 67 66 66 66 66 66 65 65 66 65 64 66 65 63 63 63 64 64 65 65 64 64 63 63 63 64 62 62 62 62 62 62 62 62 63 62 62 62 62 63 63 63 64 64 64 63 63 66 64 65 64 62 63 64 64 64 65 65 65 66
68 68 68 67 67 66 66 66 66 65 65 65 65 65 65 65 66 63 64 63 63 64 65 63 63 63 63 63 62 62 62 62 62 62 63 63 63 62 62 63 64 64 63 63 63 64 63 63 62 64 64 65 64 63 62 63 65 65 65 64 64 65
67 68 67 67 67 66 66 67 65 64 65 66 65 65 64 65 64 63 63 63 63 64 63 63 63 63 64 62 62 62 61 62 62 62 63 63 63 63 62 62 62 62 62 62 63 63 66 63 62 63 63 65 64 64 64 65 65 65 65 65 63 64
67 66 66 65 65 65 65 65 66 65 66 65 64 64 65 64 65 64 64 64 65 64 63 63 63 63 63 62 62 62 62 62 62 61 62 63 62 61 62 62 62 61 64 62 61 62 63 62 62 62 62 63 63 62 62 65 64 65 65 65 65 63
67 64 66 65 66 65 65 66 65 65 65 64 64 63 62 63 63 64 65 64 65 65 65 63 64 63 63 63 62 61 62 63 63 62 62 62 63 61 61 61 62 62 61 61 61 63 62 62 62 63 62 62 63 64 63 62 64 64 65 65 64 64
66 65 65 65 64 65 65 65 65 67 64 64 63 63 62 63 63 63 65 64 65 65 66 64 64 63 62 62 62 62 63 64 64 61 61 62 63 62 61 60 61 61 60 61 62 61 62 62 61 62 62 62 62 63 63 62 63 64 65 64 64 64
65 65 65 65 64 64 64 64 64 65 63 63 62 61 62 61 62 64 63 64 64 65 65 64 64 63 63 62 62 62 63 64 63 61 61 62 62 63 62 61 61 63 62 60 61 61 61 60 61 62 62 62 62 62 63 63 62 62 65 62 62 63
65 65 64 64 63 63 63 63 63 63 65 62 60 60 61 62 61 61 62 62 63 64 64 63 63 63 62 63 63 62 63 63 63 62 62 63 63 63 61 60 62 62 62 60 59 60 59 60 62 62 61 63 62 61 61 62 63 63 63 62 62 62
65 63 62 62 63 62 62 61 61 61 60 59 59 59 60 61 61 61 61 61 62 63 64 62 62 62 62 63 62 62 63 63 62 62 62 62 63 63 61 60 61 61 61 60 60 60 59 59 60 60 60 61 62 62 61 61 62 62 62 62 63 65
63 63 62 61 62 61 60 60 60 60 60 59 59 61 59 59 60 60 62 62 62 62 63 62 61 61 61 62 60 60 61 61 61 61 61 61 62 63 62 60 60 61 60 61 61 62 61 60 59 59 60 59 60 61 63 61 60 61 60 61 62 61
62 62 62 61 60 60 58 58 57 58 57 57 59 59 60 59 60 59 59 60 61 61 62 62 62 60 59 63 59 59 61 62 62 61 60 60 62 63 63 62 61 61 61 61 62 62 62 59 58 58 57 57 59 61 63 63 61 60 61 60 60 62
61 61 62 62 62 60 58 59 57 57 57 58 59 60 59 59 59 60 58 58 58 58 58 60 61 60 59 59 60 61 61 61 62 60 61 60 59 62 63 62 63 62 63 62 61 61 61 59 56 55 57 55 55 57 60 61 62 61 60 61 61 60
62 62 61 62 61 60 57 59 59 57 59 57 57 58 58 59 60 58 57 57 58 58 58 58 58 59 58 59 59 60 60 61 61 62 62 61 61 61 61 61 62 61 59 60 59 60 61 59 55 54 54 54 52 53 55 55 59 61 62 61 60 61
61 61 61 62 62 59 60 59 60 59 57 58 60 59 58 57 58 59 59 59 59 58 58 58 58 59 58 57 56 56 57 59 60 61 61 60 60 61 60 60 61 61 60 59 60 61 62 60 57 56 55 53 52 52 50 52 55 59 61 61 61 62
62 61 61 62 60 61 61 59 59 59 60 60 59 57 58 57 57 59 59 58 57 57 59 58 57 57 59 57 56 56 57 57 57 57 58 58 58 59 59 58 58 58 58 58 58 60 61 62 60 58 56 54 51 49 49 53 55 56 59 59 60 63
61 60 60 59 60 61 61 60 59 59 57 57 56 57 55 56 56 57 57 56 57 57 58 57 56 57 57 58 56 56 56 57 56 56 56 55 54 55 56 57 58 58 57 56 58 58 59 60 60 60 57 56 53 51 50 55 55 54 55 58 60 61
61 60 59 59 60 62 59 60 60 59 58 58 56 54 53 54 56 54 56 56 56 56 56 58 56 55 56 56 56 56 56 56 56 56 57 55 55 54 55 55 56 57 57 57 57 57 58 58 60 61 59 58 59 57 54 54 52 51 51 53 56 58
61 60 59 59 60 61 61 59 58 57 57 56 56 56 54 54 54 56 55 55 55 55 55 56 56 55 55 57 57 56 55 56 56 56 57 55 54 54 55 56 55 54 55 55 57 57 57 58 56 58 59 57 57 57 56 56 54 54 50 53 53 55
59 59 58 59 60 60 61 59 59 58 56 55 55 57 55 56 55 54 55 54 55 54 54 54 55 55 55 56 58 55 54 55 55 56 57 56 53 53 53 54 54 55 54 53 54 55 54 52 55 57 57 56 56 55 54 55 56 54 51 48 51 50
59 59 59 59 60 59 59 60 58 57 57 55 56 55 54 54 54 54 55 53 53 54 54 54 54 54 54 55 55 56 55 54 54 56 56 53 53 53 53 53 52 52 52 53 52 52 51 50 52 53 56 55 54 52 53 53 52 51 52 51 51 52
59 59 59 59 59 59 58 59 59 58 59 57 56 56 55 53 53 53 55 53 53 53 53 54 54 54 54 55 55 56 55 54 55 56 56 55 54 53 52 53 53 53 52 52 52 52 53 52 52 52 52 51 52 53 53 51 52 51 50 50 49 51
58 58 58 58 58 58 58 58 59 59 59 59 58 57 56 55 53 54 53 53 52 52 53 54 52 53 53 54 55 54 54 53 54 53 53 53 53 53 53 53 53 53 52 51 52 53 52 52 52 52 51 50 50 51 52 52 50 50 52 50 51 49
58 58 58 59 59 58 58 59 59 59 59 59 59 57 55 54 53 54 52 52 52 53 52 53 54 54 53 53 54 54 53 54 53 53 52 53 52 52 53 52 52 52 52 52 51 52 52 50 51 52 50 50 50 52 51 49 51 50 49 49 49 48
57 59 59 59 59 59 58 58 58 58 59 59 58 58 57 56 54 53 54 52 53 54 53 53 52 54 54 53 53 54 53 52 52 52 52 51 51 52 52 52 52 52 51 49 51 51 50 50 50 49 49 51 51 50 51 51 50 51 49 50 47 47
58 59 59 58 58 58 57 57 57 58 59 60 60 59 58 57 55 54 52 52 52 52 53 52 53 53 53 52 52 52 52 52 52 52 52 53 54 52 52 53 52 51 51 50 51 51 50 51 52 50 50 50 51 49 48 49 50 50 50 50 50 50
58 58 59 58 57 56 57 59 58 59 59 60 60 59 58 57 55 53 53 53 52 52 52 52 51 54 53 52 52 52 54 51 51 51 51 51 51 51 51 52 51 51 51 53 52 50 49 50 49 48 48 48 51 48 48 49 50 49 49 50 50 45
57 58 58 58 58 58 57 58 59 59 59 59 59 59 59 57 56 55 54 53 53 53 51 52 55 53 52 52 52 51 52 52 51 51 51 52 52 50 51 53 52 51 51 50 52 50 49 50 47 48 48 48 49 48 47 48 48 49 49 48 49 48

ECMWFFLT2_sfc_temp_051.txt.gz
Temp
76 76 75 75 76 76 75 75 75 74 74 74 74 75 75 75 74 74 75 74 73 77 78 78 77 79 75 77 73 73 74 74 74 74 74 74 74 73 73 72 72 72 71 70 68 68 68 70 71 71 71 71 71 78 80 80 80 81 82 82 80 82
76 76 76 76 77 76 76 76 76 75 75 74 75 75 75 74 74 74 74 75 77 78 78 78 78 76 78 77 77 73 74 73 74 74 74 73 73 73 72 72 72 71 70 69 67 75 74 71 69 70 71 71 78 80 79 79 79 81 81 81 81 77
77 76 76 77 75 74 73 73 74 75 73 73 74 74 74 75 75 75 76 78 77 77 78 78 78 77 78 75 76 73 72 73 73 74 73 73 73 73 72 72 71 69 68 68 74 76 77 78 76 70 72 77 80 79 79 78 79 80 81 81 81 73
76 77 75 72 71 71 71 71 72 72 72 72 73 75 75 76 75 75 75 75 75 77 77 76 75 75 75 77 74 70 70 71 71 72 72 74 73 72 71 71 69 69 71 75 76 78 79 78 77 77 77 79 80 78 78 79 81 81 81 80 83 71
78 77 74 70 69 66 66 70 72 73 73 72 74 73 73 73 74 75 75 74 76 76 76 76 75 75 74 75 75 75 74 73 74 74 71 75 75 76 76 77 76 74 76 76 77 77 78 78 76 77 77 78 79 79 79 79 80 81 81 80 79 71
77 75 72 69 68 67 67 68 68 70 70 72 71 71 72 72 73 74 74 75 76 75 76 76 76 74 73 73 73 73 73 72 73 72 72 74 75 74 74 75 75 76 77 77 76 76 77 77 78 77 78 77 79 79 80 81 81 80 81 80 78 71
76 74 72 70 71 69 68 67 67 67 69 69 70 70 71 72 73 74 75 76 75 76 76 76 75 74 74 71 72 72 70 71 72 72 71 72 72 73 73 74 74 75 76 76 77 77 77 77 77 79 78 79 79 80 80 81 81 81 80 80 77 70
75 74 72 70 70 69 68 69 70 71 71 70 70 70 72 72 73 74 75 76 76 77 76 76 75 75 74 74 72 72 69 69 71 71 72 72 72 74 74 73 73 74 76 77 78 78 78 79 78 77 78 78 78 79 79 81 81 80 80 80 80 73
74 74 73 73 72 71 70 70 71 71 71 72 72 73 72 72 72 73 74 75 76 74 76 75 75 75 73 72 71 69 67 68 70 71 71 71 71 72 73 72 72 74 75 77 77 78 79 79 78 78 78 78 78 79 78 79 80 80 81 81 80 77
75 75 74 74 72 71 71 68 70 71 72 73 73 72 71 72 73 74 73 74 75 75 74 74 74 74 74 71 70 68 67 69 70 70 71 71 72 73 73 73 75 76 77 77 77 77 78 79 80 78 79 79 77 79 78 79 80 81 82 80 79 78
76 74 73 72 71 72 72 70 72 69 72 73 72 72 71 71 72 73 74 74 75 75 74 73 73 73 73 71 71 71 69 71 70 70 71 72 72 73 73 73 74 75 75 75 75 77 78 78 78 80 79 80 78 77 78 78 81 82 82 81 81 79
75 74 73 72 71 71 70 69 71 72 72 73 71 71 70 71 71 73 73 72 72 72 73 72 71 70 71 72 73 72 71 71 70 71 72 73 73 72 72 73 73 75 75 74 75 76 76 77 78 79 79 80 80 79 79 78 82 83 83 81 81 80
75 73 73 72 71 71 71 72 71 72 73 71 71 70 70 70 70 72 72 71 72 73 73 71 69 70 71 72 72 70 67 68 69 71 70 71 71 71 72 72 72 73 75 75 75 76 78 76 77 78 79 79 78 79 80 80 79 80 81 81 81 81
74 74 73 73 72 72 72 71 71 72 73 71 69 68 69 69 70 71 72 71 72 73 73 72 71 69 69 70 70 68 66 67 69 70 70 70 70 71 71 72 73 74 73 74 75 75 76 75 78 79 78 79 78 76 77 80 78 78 78 80 81 79
68 72 72 72 72 73 72 72 72 72 70 67 68 69 69 68 71 73 72 71 71 72 73 73 73 71 69 71 70 69 68 70 70 70 69 70 71 70 71 71 71 73 73 74 76 76 76 75 76 77 77 76 78 77 76 77 76 77 78 77 77 79
67 69 71 72 72 72 72 71 71 69 68 69 69 70 71 72 73 73 73 72 71 71 72 72 72 72 69 70 71 70 68 68 68 68 69 69 70 71 70 69 70 71 71 74 75 76 76 75 75 75 76 76 75 74 75 74 74 77 78 77 78 76
67 66 68 70 71 70 70 69 69 70 70 70 70 70 71 71 71 72 74 74 71 71 71 71 72 72 69 69 69 69 67 68 69 70 70 69 69 69 70 70 69 70 71 72 75 75 75 74 74 73 74 73 72 70 73 72 73 73 74 74 75 77
65 67 67 69 69 68 68 69 69 69 69 70 70 71 71 72 72 73 73 73 71 71 71 71 71 71 70 70 70 70 69 67 68 68 68 68 68 68 68 69 68 69 70 72 73 72 72 73 73 71 71 71 71 69 67 70 72 72 74 74 74 76
65 66 67 68 68 67 68 68 68 69 69 70 71 71 72 73 73 72 72 71 70 71 71 70 70 70 70 71 71 70 68 67 67 67 67 67 68 67 66 66 66 67 69 69 69 71 70 70 70 71 71 69 71 70 70 70 72 73 73 74 75 76
67 66 65 65 67 68 68 67 66 68 70 71 73 73 74 74 74 74 73 71 71 70 71 70 70 70 70 69 69 68 68 67 67 67 67 67 67 68 67 67 67 67 66 67 69 70 70 70 70 69 67 68 68 70 71 70 71 72 73 73 74 75
63 62 62 63 67 67 66 66 69 70 69 70 71 71 71 71 73 72 72 73 73 72 70 71 70 69 69 69 68 67 68 68 68 68 68 68 68 68 68 68 67 67 66 66 65 67 67 70 69 67 68 68 68 69 70 70 71 71 72 73 73 74
62 62 63 63 68 69 70 71 71 71 71 71 72 73 72 72 71 70 70 71 71 72 71 70 69 69 70 69 68 68 68 68 68 66 67 68 68 67 67 67 68 66 67 65 65 68 66 67 66 66 65 65 68 68 69 69 71 73 72 73 73 73
62 62 63 66 69 70 70 69 71 69 70 69 70 70 72 71 71 72 69 70 70 71 71 72 72 71 69 68 68 69 70 68 66 67 67 66 66 66 67 66 68 66 63 65 65 66 65 67 64 65 67 65 64 64 65 67 69 70 71 72 73 75
64 65 66 70 71 69 68 68 68 69 69 70 69 68 69 70 71 72 71 70 71 70 71 72 73 73 71 69 69 69 69 68 68 68 67 66 66 67 67 66 65 66 66 64 65 63 67 67 65 65 62 63 64 64 63 65 65 67 69 69 71 72
66 66 70 69 69 69 68 68 68 68 69 68 69 70 71 70 70 70 70 70 69 69 70 71 71 71 72 70 69 69 69 68 68 66 67 67 66 66 67 68 68 67 66 65 65 65 65 66 66 68 66 62 61 62 64 65 65 65 69 70 69 68
69 68 68 68 69 70 70 69 69 68 67 67 66 67 68 68 69 70 70 67 69 69 70 70 71 71 72 71 69 68 68 69 69 68 68 68 66 66 67 68 69 69 66 68 67 66 64 66 66 66 67 66 64 62 64 64 65 62 67 68 69 69
69 69 68 68 69 70 70 71 71 71 70 69 67 67 67 67 68 68 68 67 68 68 69 69 69 70 70 70 69 69 68 68 69 69 69 69 69 68 69 67 67 68 69 69 68 66 66 65 66 67 67 66 65 64 65 63 62 65 62 64 65 66
68 68 68 69 69 71 70 70 69 69 69 70 69 67 66 66 67 68 68 67 68 68 68 69 69 69 70 70 70 69 70 70 70 71 71 71 69 69 69 68 67 66 66 67 68 67 66 68 65 66 68 67 65 64 64 63 64 64 65 59 61 66
68 67 67 68 69 70 70 69 69 68 67 68 68 67 67 68 67 68 67 67 68 69 68 67 69 69 69 70 70 69 70 70 70 70 71 71 69 69 69 68 68 68 67 66 66 66 67 68 67 67 66 66 66 65 65 64 64 65 64 63 61 62
67 67 67 68 69 68 69 69 68 68 66 66 67 67 68 67 67 68 67 66 67 68 69 68 68 68 69 70 69 70 70 69 68 69 69 69 68 68 67 67 66 66 66 65 66 68 67 66 67 68 68 68 67 67 69 68 66 65 65 66 60 58
65 65 66 66 67 66 67 69 68 68 67 66 66 66 66 65 66 67 67 67 67 67 68 68 68 67 67 69 68 69 69 69 69 68 69 69 68 69 67 66 66 66 66 66 66 64 64 65 67 67 67 69 69 69 67 67 67 67 66 63 63 62
63 63 64 65 65 65 66 66 67 67 67 67 67 67 67 66 67 67 67 66 66 67 67 67 68 68 67 68 68 68 68 69 69 68 68 68 68 69 68 68 68 67 66 66 66 66 66 66 66 67 66 68 68 68 68 68 69 69 69 67 66 64
62 65 65 65 64 64 65 65 66 66 67 67 67 68 68 67 67 67 67 66 67 67 67 67 68 68 67 67 69 69 69 69 68 67 67 68 67 67 68 68 68 67 67 66 67 67 66 65 66 67 66 67 68 69 67 67 68 68 68 70 68 65
60 63 65 65 64 64 65 65 66 66 66 67 67 68 68 68 67 68 68 67 68 68 68 68 67 68 67 68 69 69 68 68 68 68 67 66 67 67 68 71 69 68 66 66 66 66 65 64 64 65 67 67 67 67 67 68 68 68 68 68 68 66
59 60 62 63 64 65 65 65 66 67 67 67 67 67 68 68 67 67 67 67 67 68 68 68 68 67 66 67 67 68 68 68 67 67 67 67 67 67 67 69 69 66 66 66 67 66 66 65 65 65 65 66 66 67 67 69 69 68 70 69 69 67
61 61 62 63 64 65 65 66 65 65 65 65 66 66 66 65 66 67 67 68 67 67 68 68 67 67 66 68 67 67 68 68 67 67 68 68 68 68 68 68 68 67 65 67 66 65 65 65 64 64 65 66 67 66 67 67 69 68 69 68 68 68
61 61 63 64 64 65 65 65 64 65 65 65 64 64 64 63 63 64 66 67 68 68 67 67 67 67 67 67 68 68 68 67 67 67 67 68 68 68 68 68 68 67 66 67 67 66 66 66 65 65 66 65 66 66 66 66 67 67 67 67 69 69